Time,TemperatureF,DewpointF,PressureIn,WindDirection,WindDirectionDegrees,WindSpeedMPH,WindSpeedGustMPH,Humidity,HourlyPrecipIn,Conditions,Clouds,dailyrainin,SolarRadiationWatts/m^2,SoftwareType,DateUTC
2013-02-14 00:00:00,37.6,31.1,29.87,SSW,194,0.0,2.0,77,0.00,,BKN110,0.00,0.00,VWS V14.01,2013-02-14 06:00:00,
2013-02-14 00:01:00,38.3,31.7,29.86,SW,223,1.0,2.0,77,0.00,,CLR,0.00,0.00,VWS V14.01,2013-02-14 06:01:00,
2013-02-14 00:05:00,37.6,30.7,29.87,SW,234,2.0,3.0,76,0.00,,BKN110,0.00,0.00,VWS V14.01,2013-02-14 06:05:00,
2013-02-14 00:06:00,38.2,31.6,29.86,SSW,198,0.0,2.0,77,0.00,,CLR,0.00,0.00,VWS V14.01,2013-02-14 06:06:00,
2013-02-14 00:10:00,37.7,30.8,29.87,WSW,242,0.0,4.0,76,0.00,,BKN110,0.00,0.00,VWS V14.01,2013-02-14 06:10:00,
2013-02-14 00:11:00,38.1,31.5,29.86,SSW,198,1.0,1.0,77,0.00,,CLR,0.00,0.00,VWS V14.01,2013-02-14 06:11:00,
2013-02-14 00:15:00,37.6,30.4,29.87,WSW,242,0.0,0.0,75,0.00,,BKN110,0.00,0.00,VWS V14.01,2013-02-14 06:15:00,
2013-02-14 00:16:00,38.0,31.4,29.86,SSW,210,0.0,1.0,77,0.00,,CLR,0.00,0.00,VWS V14.01,2013-02-14 06:16:00,
2013-02-14 00:20:00,37.6,30.4,29.87,WSW,242,0.0,2.0,75,0.00,,BKN110,0.00,0.00,VWS V14.01,2013-02-14 06:20:00,
2013-02-14 00:21:00,37.9,31.4,29.86,SSW,211,0.0,0.0,77,0.00,,CLR,0.00,0.00,VWS V14.01,2013-02-14 06:21:00,
2013-02-14 00:25:00,37.5,30.0,29.87,SW,222,0.0,3.0,74,0.00,,BKN110,0.00,0.00,VWS V14.01,2013-02-14 06:25:00,
2013-02-14 00:26:00,37.8,31.2,29.86,SSW,211,0.0,0.0,77,0.00,,CLR,0.00,0.00,VWS V14.01,2013-02-14 06:26:00,
2013-02-14 00:30:00,37.5,29.3,29.87,WSW,250,2.0,6.0,72,0.00,,BKN110,0.00,0.00,VWS V14.01,2013-02-14 06:30:00,
2013-02-14 00:31:00,37.7,31.5,29.86,SSW,211,0.0,2.0,78,0.00,,CLR,0.00,0.00,VWS V14.01,2013-02-14 06:31:00,
2013-02-14 00:35:00,37.6,29.1,29.87,SSW,200,3.0,4.0,71,0.00,,BKN110,0.00,0.00,VWS V14.01,2013-02-14 06:35:00,
2013-02-14 00:36:00,37.7,31.5,29.86,SSW,211,0.0,1.0,78,0.00,,CLR,0.00,0.00,VWS V14.01,2013-02-14 06:36:00,
2013-02-14 00:40:00,37.7,29.2,29.87,WSW,244,1.0,4.0,71,0.00,,BKN110,0.00,0.00,VWS V14.01,2013-02-14 06:40:00,
2013-02-14 00:41:00,37.7,31.5,29.86,SW,222,0.0,2.0,78,0.00,,CLR,0.00,0.00,VWS V14.01,2013-02-14 06:41:00,
2013-02-14 00:45:00,37.8,28.6,29.87,WSW,251,0.0,5.0,69,0.00,,BKN110,0.00,0.00,VWS V14.01,2013-02-14 06:45:00,
2013-02-14 00:46:00,37.7,31.1,29.86,SW,221,0.0,0.0,77,0.00,,CLR,0.00,0.00,VWS V14.01,2013-02-14 06:46:00,
2013-02-14 00:50:00,37.9,28.3,29.87,SW,229,0.0,4.0,68,0.00,,BKN110,0.00,0.00,VWS V14.01,2013-02-14 06:50:00,
2013-02-14 00:51:00,37.7,31.1,29.86,SW,222,1.0,1.0,77,0.00,,CLR,0.00,0.00,VWS V14.01,2013-02-14 06:51:00,
2013-02-14 00:55:00,38.0,28.0,29.87,WSW,245,0.0,4.0,67,0.00,,BKN110,0.00,0.00,VWS V14.01,2013-02-14 06:55:00,
2013-02-14 00:56:00,37.6,31.1,29.86,SW,222,1.0,2.0,77,0.00,,CLR,0.00,0.00,VWS V14.01,2013-02-14 06:56:00,
2013-02-14 01:00:00,38.2,27.9,29.86,WSW,237,3.0,6.0,66,0.00,,BKN110,0.00,0.00,VWS V14.01,2013-02-14 07:00:00,
2013-02-14 01:01:00,37.6,31.1,29.87,SW,232,1.0,3.0,77,0.00,,CLR,0.00,0.00,VWS V14.01,2013-02-14 07:01:00,
2013-02-14 01:05:00,38.3,27.6,29.86,WSW,257,3.0,3.0,65,0.00,,BKN110,0.00,0.00,VWS V14.01,2013-02-14 07:05:00,
2013-02-14 01:06:00,37.7,30.8,29.87,WSW,243,0.0,4.0,76,0.00,,CLR,0.00,0.00,VWS V14.01,2013-02-14 07:06:00,
2013-02-14 01:10:00,38.4,27.3,29.86,SW,225,1.0,4.0,64,0.00,,BKN110,0.00,0.00,VWS V14.01,2013-02-14 07:10:00,
2013-02-14 01:11:00,37.6,30.7,29.87,WSW,242,0.0,0.0,76,0.00,,CLR,0.00,0.00,VWS V14.01,2013-02-14 07:11:00,
2013-02-14 01:15:00,38.5,27.0,29.87,WSW,252,1.0,6.0,63,0.00,,BKN110,0.00,0.00,VWS V14.01,2013-02-14 07:15:00,
2013-02-14 01:16:00,37.6,30.4,29.87,WSW,242,0.0,0.0,75,0.00,,CLR,0.00,0.00,VWS V14.01,2013-02-14 07:16:00,
2013-02-14 01:20:00,38.6,27.1,29.87,SW,218,2.0,4.0,63,0.00,,BKN110,0.00,0.00,VWS V14.01,2013-02-14 07:20:00,
2013-02-14 01:21:00,37.6,30.4,29.87,SW,236,0.0,2.0,75,0.00,,CLR,0.00,0.00,VWS V14.01,2013-02-14 07:21:00,
2013-02-14 01:25:00,38.7,27.2,29.87,WSW,253,0.0,4.0,63,0.00,,BKN110,0.00,0.00,VWS V14.01,2013-02-14 07:25:00,
2013-02-14 01:26:00,37.5,30.0,29.87,SW,222,0.0,0.0,74,0.00,,CLR,0.00,0.00,VWS V14.01,2013-02-14 07:26:00,
2013-02-14 01:30:00,38.7,26.8,29.87,WSW,252,0.0,3.0,62,0.00,,BKN110,0.00,0.00,VWS V14.01,2013-02-14 07:30:00,
2013-02-14 01:31:00,37.6,29.4,29.87,WSW,251,0.0,2.0,72,0.00,,CLR,0.00,0.00,VWS V14.01,2013-02-14 07:31:00,
2013-02-14 01:35:00,38.7,26.8,29.87,SW,231,0.0,4.0,62,0.00,,BKN110,0.00,0.00,VWS V14.01,2013-02-14 07:35:00,
2013-02-14 01:36:00,37.6,29.1,29.87,SW,226,0.0,3.0,71,0.00,,CLR,0.00,0.00,VWS V14.01,2013-02-14 07:36:00,
2013-02-14 01:40:00,38.7,26.8,29.87,WSW,256,1.0,4.0,62,0.00,,BKN110,0.00,0.00,VWS V14.01,2013-02-14 07:40:00,
2013-02-14 01:41:00,37.7,29.2,29.87,SW,226,1.0,3.0,71,0.00,,CLR,0.00,0.00,VWS V14.01,2013-02-14 07:41:00,
2013-02-14 01:45:00,38.7,26.4,29.87,WSW,240,0.0,4.0,61,0.00,,BKN110,0.00,0.00,VWS V14.01,2013-02-14 07:45:00,
2013-02-14 01:46:00,37.8,28.6,29.87,WSW,251,0.0,0.0,69,0.00,,CLR,0.00,0.00,VWS V14.01,2013-02-14 07:46:00,
2013-02-14 01:50:00,38.8,26.1,29.87,SW,225,0.0,6.0,60,0.00,,BKN110,0.00,0.00,VWS V14.01,2013-02-14 07:50:00,
2013-02-14 01:51:00,37.9,28.3,29.87,SW,229,0.0,2.0,68,0.00,,CLR,0.00,0.00,VWS V14.01,2013-02-14 07:51:00,
2013-02-14 01:55:00,38.8,26.1,29.87,WSW,250,0.0,4.0,60,0.00,,BKN110,0.00,0.00,VWS V14.01,2013-02-14 07:55:00,
2013-02-14 01:56:00,38.1,27.8,29.87,WSW,240,0.0,2.0,66,0.00,,CLR,0.00,0.00,VWS V14.01,2013-02-14 07:56:00,
2013-02-14 02:00:00,38.9,26.2,29.86,SW,217,0.0,4.0,60,0.00,,BKN110,0.00,0.00,VWS V14.01,2013-02-14 08:00:00,
2013-02-14 02:02:00,38.2,27.5,29.86,SW,219,1.0,3.0,65,0.00,,CLR,0.00,0.00,VWS V14.01,2013-02-14 08:02:00,
2013-02-14 02:05:00,38.8,26.1,29.86,South,191,0.0,3.0,60,0.00,,BKN110,0.00,0.00,VWS V14.01,2013-02-14 08:05:00,
2013-02-14 02:07:00,38.3,27.6,29.86,SSE,160,2.0,4.0,65,0.00,,CLR,0.00,0.00,VWS V14.01,2013-02-14 08:07:00,
2013-02-14 02:10:00,38.7,25.6,29.86,SSW,192,0.0,0.0,59,0.00,,BKN110,0.00,0.00,VWS V14.01,2013-02-14 08:10:00,
2013-02-14 02:12:00,38.4,27.3,29.86,SW,226,2.0,3.0,64,0.00,,CLR,0.00,0.00,VWS V14.01,2013-02-14 08:12:00,
2013-02-14 02:15:00,38.6,25.5,29.86,SSW,192,0.0,2.0,59,0.00,,BKN110,0.00,0.00,VWS V14.01,2013-02-14 08:15:00,
2013-02-14 02:17:00,38.5,27.0,29.87,WSW,252,0.0,1.0,63,0.00,,CLR,0.00,0.00,VWS V14.01,2013-02-14 08:17:00,
2013-02-14 02:20:00,38.4,24.9,29.86,South,191,0.0,0.0,58,0.00,,BKN110,0.00,0.00,VWS V14.01,2013-02-14 08:20:00,
2013-02-14 02:22:00,38.6,27.1,29.87,WSW,238,0.0,3.0,63,0.00,,CLR,0.00,0.00,VWS V14.01,2013-02-14 08:22:00,
2013-02-14 02:25:00,38.3,24.8,29.86,SSW,192,0.0,0.0,58,0.00,,BKN110,0.00,0.00,VWS V14.01,2013-02-14 08:25:00,
2013-02-14 02:27:00,38.7,27.2,29.87,WSW,254,0.0,0.0,63,0.00,,CLR,0.00,0.00,VWS V14.01,2013-02-14 08:27:00,
2013-02-14 02:30:00,38.3,24.8,29.86,SSW,192,0.0,1.0,58,0.00,,BKN110,0.00,0.00,VWS V14.01,2013-02-14 08:30:00,
2013-02-14 02:32:00,38.7,26.8,29.87,WSW,252,0.0,0.0,62,0.00,,CLR,0.00,0.00,VWS V14.01,2013-02-14 08:32:00,
2013-02-14 02:35:00,38.2,24.7,29.86,SSW,192,0.0,2.0,58,0.00,,BKN110,0.00,0.00,VWS V14.01,2013-02-14 08:35:00,
2013-02-14 02:37:00,38.7,26.8,29.87,SW,231,0.0,1.0,62,0.00,,CLR,0.00,0.00,VWS V14.01,2013-02-14 08:37:00,
2013-02-14 02:40:00,38.2,25.1,29.86,South,191,0.0,0.0,59,0.00,,BKN110,0.00,0.00,VWS V14.01,2013-02-14 08:40:00,
2013-02-14 02:42:00,38.7,26.4,29.87,WSW,256,0.0,2.0,61,0.00,,CLR,0.00,0.00,VWS V14.01,2013-02-14 08:42:00,
2013-02-14 02:45:00,38.2,25.1,29.86,SSW,192,0.0,1.0,59,0.00,,BKN110,0.00,0.00,VWS V14.01,2013-02-14 08:45:00,
2013-02-14 02:47:00,38.7,26.4,29.87,SSW,208,4.0,4.0,61,0.00,,CLR,0.00,0.00,VWS V14.01,2013-02-14 08:47:00,
2013-02-14 02:50:00,38.1,25.1,29.86,SSW,192,0.0,0.0,59,0.00,,BKN110,0.00,0.00,VWS V14.01,2013-02-14 08:50:00,
2013-02-14 02:52:00,38.8,26.1,29.87,SSW,212,1.0,4.0,60,0.00,,CLR,0.00,0.00,VWS V14.01,2013-02-14 08:52:00,
2013-02-14 02:55:00,38.0,25.0,29.86,SSW,192,0.0,2.0,59,0.00,,BKN110,0.00,0.00,VWS V14.01,2013-02-14 08:55:00,
2013-02-14 02:57:00,38.9,26.2,29.87,SW,226,0.0,4.0,60,0.00,,CLR,0.00,0.00,VWS V14.01,2013-02-14 08:57:00,
2013-02-14 03:00:00,37.9,24.9,29.86,SSW,192,0.0,1.0,59,0.00,,BKN110,0.00,0.00,VWS V14.01,2013-02-14 09:00:00,
2013-02-14 03:02:00,38.9,26.6,29.86,SW,217,0.0,1.0,61,0.00,,CLR,0.00,0.00,VWS V14.01,2013-02-14 09:02:00,
2013-02-14 03:05:00,37.8,24.8,29.86,South,191,0.0,1.0,59,0.00,,BKN110,0.00,0.00,VWS V14.01,2013-02-14 09:05:00,
2013-02-14 03:07:00,38.8,26.1,29.86,South,191,0.0,0.0,60,0.00,,CLR,0.00,0.00,VWS V14.01,2013-02-14 09:07:00,
2013-02-14 03:10:00,37.8,24.8,29.86,SSW,192,0.0,1.0,59,0.00,,BKN110,0.00,0.00,VWS V14.01,2013-02-14 09:10:00,
2013-02-14 03:12:00,38.6,25.5,29.86,SSW,192,0.0,2.0,59,0.00,,CLR,0.00,0.00,VWS V14.01,2013-02-14 09:12:00,
2013-02-14 03:15:00,37.7,25.1,29.86,South,191,0.0,0.0,60,0.00,,BKN110,0.00,0.00,VWS V14.01,2013-02-14 09:15:00,
2013-02-14 03:17:00,38.5,25.0,29.86,SSW,192,0.0,0.0,58,0.00,,CLR,0.00,0.00,VWS V14.01,2013-02-14 09:17:00,
2013-02-14 03:20:00,37.6,25.0,29.86,South,191,0.0,0.0,60,0.00,,BKN110,0.00,0.00,VWS V14.01,2013-02-14 09:20:00,
2013-02-14 03:22:00,38.4,24.9,29.86,South,191,0.0,0.0,58,0.00,,CLR,0.00,0.00,VWS V14.01,2013-02-14 09:22:00,
2013-02-14 03:25:00,37.5,24.9,29.86,SSW,192,0.0,1.0,60,0.00,,BKN110,0.00,0.00,VWS V14.01,2013-02-14 09:25:00,
2013-02-14 03:27:00,38.3,24.8,29.86,SSW,192,0.0,0.0,58,0.00,,CLR,0.00,0.00,VWS V14.01,2013-02-14 09:27:00,
2013-02-14 03:30:00,37.4,24.8,29.86,SSW,192,0.0,0.0,60,0.00,,BKN110,0.00,0.00,VWS V14.01,2013-02-14 09:30:00,
2013-02-14 03:32:00,38.2,24.7,29.86,SSW,192,0.0,2.0,58,0.00,,CLR,0.00,0.00,VWS V14.01,2013-02-14 09:32:00,
2013-02-14 03:35:00,37.3,25.1,29.86,SSW,192,0.0,0.0,61,0.00,,BKN110,0.00,0.00,VWS V14.01,2013-02-14 09:35:00,
2013-02-14 03:37:00,38.2,24.7,29.86,South,191,0.0,0.0,58,0.00,,CLR,0.00,0.00,VWS V14.01,2013-02-14 09:37:00,
2013-02-14 03:40:00,37.1,24.5,29.86,SSW,192,0.0,0.0,60,0.00,,BKN110,0.00,0.00,VWS V14.01,2013-02-14 09:40:00,
2013-02-14 03:42:00,38.2,25.1,29.86,South,191,0.0,0.0,59,0.00,,CLR,0.00,0.00,VWS V14.01,2013-02-14 09:42:00,
2013-02-14 03:45:00,37.0,24.4,29.86,SSW,192,0.0,0.0,60,0.00,,BKN110,0.00,0.00,VWS V14.01,2013-02-14 09:45:00,
2013-02-14 03:47:00,38.1,25.1,29.86,SSW,192,0.0,0.0,59,0.00,,CLR,0.00,0.00,VWS V14.01,2013-02-14 09:47:00,
2013-02-14 03:50:00,36.8,24.2,29.86,SSW,192,0.0,0.0,60,0.00,,BKN110,0.00,0.00,VWS V14.01,2013-02-14 09:50:00,
2013-02-14 03:53:00,38.1,25.1,29.86,South,191,1.0,1.0,59,0.00,,CLR,0.00,0.00,VWS V14.01,2013-02-14 09:53:00,
2013-02-14 03:55:00,36.6,24.0,29.86,South,191,0.0,1.0,60,0.00,,BKN110,0.00,0.00,VWS V14.01,2013-02-14 09:55:00,
2013-02-14 03:58:00,38.0,25.0,29.86,South,191,1.0,1.0,59,0.00,,CLR,0.00,0.00,VWS V14.01,2013-02-14 09:58:00,
2013-02-14 04:00:00,36.6,24.4,29.86,South,191,0.0,0.0,61,0.00,,BKN110,0.00,0.00,VWS V14.01,2013-02-14 10:00:00,
2013-02-14 04:03:00,37.9,24.9,29.86,South,191,1.0,1.0,59,0.00,,CLR,0.00,0.00,VWS V14.01,2013-02-14 10:03:00,
2013-02-14 04:05:00,36.5,24.3,29.86,SSW,192,0.0,0.0,61,0.00,,BKN110,0.00,0.00,VWS V14.01,2013-02-14 10:05:00,
2013-02-14 04:08:00,37.8,24.8,29.86,SSW,192,0.0,0.0,59,0.00,,CLR,0.00,0.00,VWS V14.01,2013-02-14 10:08:00,
2013-02-14 04:10:00,36.4,24.2,29.86,SSW,192,0.0,0.0,61,0.00,,BKN110,0.00,0.00,VWS V14.01,2013-02-14 10:10:00,
2013-02-14 04:13:00,37.7,24.7,29.86,SSW,192,0.0,0.0,59,0.00,,CLR,0.00,0.00,VWS V14.01,2013-02-14 10:13:00,
2013-02-14 04:15:00,36.2,24.1,29.86,South,191,0.0,0.0,61,0.00,,BKN110,0.00,0.00,VWS V14.01,2013-02-14 10:15:00,
2013-02-14 04:18:00,37.7,25.1,29.86,SSW,192,0.0,0.0,60,0.00,,CLR,0.00,0.00,VWS V14.01,2013-02-14 10:18:00,
2013-02-14 04:20:00,36.2,24.1,29.86,SSW,192,0.0,0.0,61,0.00,,BKN110,0.00,0.00,VWS V14.01,2013-02-14 10:20:00,
2013-02-14 04:23:00,37.6,25.0,29.86,SSW,192,0.0,0.0,60,0.00,,CLR,0.00,0.00,VWS V14.01,2013-02-14 10:23:00,
2013-02-14 04:25:00,36.1,24.4,29.86,SSW,192,0.0,0.0,62,0.00,,BKN110,0.00,0.00,VWS V14.01,2013-02-14 10:25:00,
2013-02-14 04:28:00,37.5,24.9,29.86,SSW,192,0.0,0.0,60,0.00,,CLR,0.00,0.00,VWS V14.01,2013-02-14 10:28:00,
2013-02-14 04:30:00,36.0,24.3,29.86,South,191,0.0,0.0,62,0.00,,BKN110,0.00,0.00,VWS V14.01,2013-02-14 10:30:00,
2013-02-14 04:33:00,37.3,24.7,29.86,South,191,0.0,0.0,60,0.00,,CLR,0.00,0.00,VWS V14.01,2013-02-14 10:33:00,
2013-02-14 04:35:00,35.8,24.5,29.86,South,191,0.0,0.0,63,0.00,,BKN110,0.00,0.00,VWS V14.01,2013-02-14 10:35:00,
2013-02-14 04:38:00,37.2,24.6,29.86,SSW,192,0.0,0.0,60,0.00,,CLR,0.00,0.00,VWS V14.01,2013-02-14 10:38:00,
2013-02-14 04:40:00,35.7,24.4,29.86,SSW,192,0.0,1.0,63,0.00,,BKN110,0.00,0.00,VWS V14.01,2013-02-14 10:40:00,
2013-02-14 04:43:00,37.0,24.4,29.86,South,191,0.0,0.0,60,0.00,,CLR,0.00,0.00,VWS V14.01,2013-02-14 10:43:00,
2013-02-14 04:45:00,35.7,24.7,29.86,SSW,192,0.0,1.0,64,0.00,,BKN110,0.00,0.00,VWS V14.01,2013-02-14 10:45:00,
2013-02-14 04:48:00,36.9,24.3,29.86,SSW,192,0.0,0.0,60,0.00,,CLR,0.00,0.00,VWS V14.01,2013-02-14 10:48:00,
2013-02-14 04:50:00,35.6,24.6,29.86,SSW,192,0.0,0.0,64,0.00,,BKN110,0.00,0.00,VWS V14.01,2013-02-14 10:50:00,
2013-02-14 04:53:00,36.7,24.5,29.86,South,191,0.0,0.0,61,0.00,,CLR,0.00,0.00,VWS V14.01,2013-02-14 10:53:00,
2013-02-14 04:55:00,35.6,24.6,29.86,South,191,0.0,0.0,64,0.00,,BKN110,0.00,0.00,VWS V14.01,2013-02-14 10:55:00,
2013-02-14 04:58:00,36.6,24.0,29.86,South,191,0.0,0.0,60,0.00,,CLR,0.00,0.00,VWS V14.01,2013-02-14 10:58:00,
2013-02-14 05:00:00,35.5,24.5,29.86,SSW,192,0.0,0.0,64,0.00,,BKN110,0.00,0.00,VWS V14.01,2013-02-14 11:00:00,
2013-02-14 05:03:00,36.5,24.3,29.86,South,191,0.0,0.0,61,0.00,,CLR,0.00,0.00,VWS V14.01,2013-02-14 11:03:00,
2013-02-14 05:05:00,35.4,24.5,29.86,South,191,0.0,0.0,64,0.00,,BKN110,0.00,0.00,VWS V14.01,2013-02-14 11:05:00,
2013-02-14 05:08:00,36.4,24.2,29.86,SSW,192,0.0,0.0,61,0.00,,CLR,0.00,0.00,VWS V14.01,2013-02-14 11:08:00,
2013-02-14 05:10:00,35.3,24.4,29.86,South,191,0.0,0.0,64,0.00,,BKN110,0.00,0.00,VWS V14.01,2013-02-14 11:10:00,
2013-02-14 05:13:00,36.3,24.1,29.86,SSW,192,0.0,0.0,61,0.00,,CLR,0.00,0.00,VWS V14.01,2013-02-14 11:13:00,
2013-02-14 05:15:00,35.2,24.6,29.88,SSW,192,0.0,0.0,65,0.00,,BKN110,0.00,0.00,VWS V14.01,2013-02-14 11:15:00,
2013-02-14 05:18:00,36.2,24.1,29.86,SSW,192,0.0,0.0,61,0.00,,CLR,0.00,0.00,VWS V14.01,2013-02-14 11:18:00,
2013-02-14 05:20:00,35.0,24.4,29.88,SSW,192,0.0,0.0,65,0.00,,BKN110,0.00,0.00,VWS V14.01,2013-02-14 11:20:00,
2013-02-14 05:23:00,36.1,24.0,29.86,SSW,192,0.0,0.0,61,0.00,,CLR,0.00,0.00,VWS V14.01,2013-02-14 11:23:00,
2013-02-14 05:25:00,34.8,24.6,29.88,SSW,192,0.0,0.0,66,0.00,,BKN110,0.00,0.00,VWS V14.01,2013-02-14 11:25:00,
2013-02-14 05:28:00,36.0,24.3,29.86,South,191,0.0,0.0,62,0.00,,CLR,0.00,0.00,VWS V14.01,2013-02-14 11:28:00,
2013-02-14 05:30:00,34.4,24.2,29.88,South,191,0.0,0.0,66,0.00,,BKN110,0.00,0.00,VWS V14.01,2013-02-14 11:30:00,
2013-02-14 05:33:00,35.9,24.2,29.86,SSW,192,0.0,0.0,62,0.00,,CLR,0.00,0.00,VWS V14.01,2013-02-14 11:33:00,
2013-02-14 05:35:00,34.4,24.6,29.88,South,191,0.0,0.0,67,0.00,,BKN110,0.00,0.00,VWS V14.01,2013-02-14 11:35:00,
2013-02-14 05:38:00,35.7,24.4,29.86,South,191,0.0,1.0,63,0.00,,CLR,0.00,0.00,VWS V14.01,2013-02-14 11:38:00,
2013-02-14 05:40:00,34.4,24.6,29.88,SSW,192,0.0,0.0,67,0.00,,BKN110,0.00,0.00,VWS V14.01,2013-02-14 11:40:00,
2013-02-14 05:43:00,35.7,24.4,29.86,South,191,0.0,1.0,63,0.00,,CLR,0.00,0.00,VWS V14.01,2013-02-14 11:43:00,
2013-02-14 05:45:00,34.4,24.6,29.89,South,191,0.0,0.0,67,0.00,,BKN110,0.00,0.00,VWS V14.01,2013-02-14 11:45:00,
2013-02-14 05:48:00,35.7,24.7,29.86,SSW,192,0.0,0.0,64,0.00,,CLR,0.00,0.00,VWS V14.01,2013-02-14 11:48:00,
2013-02-14 05:50:00,34.4,24.6,29.89,South,191,0.0,0.0,67,0.00,,BKN110,0.00,0.00,VWS V14.01,2013-02-14 11:50:00,
2013-02-14 05:53:00,35.6,24.6,29.86,SSW,192,0.0,0.0,64,0.00,,CLR,0.00,0.00,VWS V14.01,2013-02-14 11:53:00,
2013-02-14 05:55:00,34.4,25.0,29.89,SSW,192,0.0,0.0,68,0.00,,BKN110,0.00,0.00,VWS V14.01,2013-02-14 11:55:00,
2013-02-14 05:58:00,35.6,24.6,29.86,SSW,192,0.0,0.0,64,0.00,,CLR,0.00,0.00,VWS V14.01,2013-02-14 11:58:00,
2013-02-14 06:00:00,34.4,25.0,29.89,SSW,192,0.0,0.0,68,0.00,,BKN110,0.00,0.00,VWS V14.01,2013-02-14 12:00:00,
2013-02-14 06:03:00,35.5,24.5,29.86,SSW,192,0.0,0.0,64,0.00,,CLR,0.00,0.00,VWS V14.01,2013-02-14 12:03:00,
2013-02-14 06:05:00,34.4,24.6,29.89,South,191,0.0,0.0,67,0.00,,BKN110,0.00,5.00,VWS V14.01,2013-02-14 12:05:00,
2013-02-14 06:08:00,35.4,24.5,29.86,SSW,192,0.0,0.0,64,0.00,,CLR,0.00,0.00,VWS V14.01,2013-02-14 12:08:00,
2013-02-14 06:10:00,34.4,24.6,29.89,South,191,0.0,0.0,67,0.00,,BKN110,0.00,7.00,VWS V14.01,2013-02-14 12:10:00,
2013-02-14 06:13:00,35.2,24.6,29.86,SSW,192,0.0,0.0,65,0.00,,CLR,0.00,0.00,VWS V14.01,2013-02-14 12:13:00,
2013-02-14 06:15:00,34.4,24.6,29.89,NE,35,0.0,0.0,67,0.00,,BKN110,0.00,9.00,VWS V14.01,2013-02-14 12:15:00,
2013-02-14 06:20:00,35.0,24.4,29.88,SSW,192,0.0,0.0,65,0.00,,CLR,0.00,0.00,VWS V14.01,2013-02-14 12:20:00,
2013-02-14 06:25:00,34.8,24.2,29.88,SSW,192,0.0,0.0,65,0.00,,CLR,0.00,0.00,VWS V14.01,2013-02-14 12:25:00,
2013-02-14 06:30:00,34.4,24.2,29.88,South,191,0.0,0.0,66,0.00,,CLR,0.00,0.00,VWS V14.01,2013-02-14 12:30:00,
2013-02-14 06:35:00,34.4,24.6,29.88,SSW,192,0.0,0.0,67,0.00,,CLR,0.00,0.00,VWS V14.01,2013-02-14 12:35:00,
2013-02-14 06:40:00,34.4,24.6,29.88,SSW,192,0.0,0.0,67,0.00,,CLR,0.00,0.00,VWS V14.01,2013-02-14 12:40:00,
2013-02-14 06:45:00,34.4,24.6,29.89,SSW,192,0.0,0.0,67,0.00,,CLR,0.00,0.00,VWS V14.01,2013-02-14 12:45:00,
2013-02-14 06:50:00,34.4,24.6,29.89,SSW,192,0.0,0.0,67,0.00,,CLR,0.00,0.00,VWS V14.01,2013-02-14 12:50:00,
2013-02-14 06:55:00,34.4,25.0,29.89,South,191,0.0,0.0,68,0.00,,CLR,0.00,0.00,VWS V14.01,2013-02-14 12:55:00,
2013-02-14 07:00:00,34.4,25.0,29.89,SSW,192,0.0,0.0,68,0.00,,CLR,0.00,0.00,VWS V14.01,2013-02-14 13:00:00,
2013-02-14 07:05:00,35.0,26.2,29.92,WNW,296,0.0,2.0,70,0.00,,BKN110,0.00,56.00,VWS V14.01,2013-02-14 13:05:00,
2013-02-14 07:06:00,34.4,24.6,29.89,South,191,0.0,0.0,67,0.00,,CLR,0.00,5.00,VWS V14.01,2013-02-14 13:06:00,
2013-02-14 07:10:00,35.3,26.2,29.92,West,274,1.0,3.0,69,0.00,,BKN110,0.00,93.00,VWS V14.01,2013-02-14 13:10:00,
2013-02-14 07:11:00,34.4,24.6,29.89,South,191,0.0,0.0,67,0.00,,CLR,0.00,7.00,VWS V14.01,2013-02-14 13:11:00,
2013-02-14 07:15:00,35.6,26.5,29.93,West,273,0.0,2.0,69,0.00,,BKN110,0.00,120.00,VWS V14.01,2013-02-14 13:15:00,
2013-02-14 07:16:00,34.4,24.6,29.89,NE,35,0.0,0.0,67,0.00,,CLR,0.00,9.00,VWS V14.01,2013-02-14 13:16:00,
2013-02-14 07:20:00,35.9,26.7,29.93,West,273,0.0,2.0,69,0.00,,BKN110,0.00,84.00,VWS V14.01,2013-02-14 13:20:00,
2013-02-14 07:21:00,34.4,25.0,29.89,NE,35,0.0,0.0,68,0.00,,CLR,0.00,11.00,VWS V14.01,2013-02-14 13:21:00,
2013-02-14 07:25:00,36.3,27.1,29.93,West,259,1.0,3.0,69,0.00,,BKN110,0.00,148.00,VWS V14.01,2013-02-14 13:25:00,
2013-02-14 07:26:00,34.4,25.0,29.89,NE,34,0.0,0.0,68,0.00,,CLR,0.00,14.00,VWS V14.01,2013-02-14 13:26:00,
2013-02-14 07:30:00,36.7,27.5,29.94,West,261,1.0,3.0,69,0.00,,BKN110,0.00,139.00,VWS V14.01,2013-02-14 13:30:00,
2013-02-14 07:31:00,34.3,24.9,29.91,NE,35,0.0,0.0,68,0.00,,CLR,0.00,18.00,VWS V14.01,2013-02-14 13:31:00,
2013-02-14 07:35:00,37.1,27.9,29.94,WSW,249,2.0,3.0,69,0.00,,BKN110,0.00,174.00,VWS V14.01,2013-02-14 13:35:00,
2013-02-14 07:36:00,34.3,25.2,29.91,NE,35,0.0,0.0,69,0.00,,CLR,0.00,18.00,VWS V14.01,2013-02-14 13:36:00,
2013-02-14 07:40:00,37.6,28.4,29.94,WSW,248,1.0,4.0,69,0.00,,BKN110,0.00,246.00,VWS V14.01,2013-02-14 13:40:00,
2013-02-14 07:41:00,34.4,25.3,29.91,WSW,238,0.0,1.0,69,0.00,,CLR,0.00,30.00,VWS V14.01,2013-02-14 13:41:00,
2013-02-14 07:45:00,38.2,28.9,29.94,West,259,2.0,5.0,69,0.00,,BKN110,0.00,283.00,VWS V14.01,2013-02-14 13:45:00,
2013-02-14 07:46:00,34.4,25.3,29.92,WSW,238,0.0,0.0,69,0.00,,CLR,0.00,42.00,VWS V14.01,2013-02-14 13:46:00,
2013-02-14 07:50:00,38.8,29.2,29.94,WSW,252,3.0,6.0,68,0.00,,BKN110,0.00,301.00,VWS V14.01,2013-02-14 13:50:00,
2013-02-14 07:51:00,34.4,25.3,29.92,WSW,239,0.0,0.0,69,0.00,,CLR,0.00,37.00,VWS V14.01,2013-02-14 13:51:00,
2013-02-14 07:55:00,39.3,29.3,29.94,West,263,2.0,5.0,67,0.00,,BKN110,0.00,302.00,VWS V14.01,2013-02-14 13:55:00,
2013-02-14 07:56:00,34.4,25.3,29.92,WSW,239,0.0,0.0,69,0.00,,CLR,0.00,37.00,VWS V14.01,2013-02-14 13:56:00,
2013-02-14 08:00:00,39.8,29.8,29.94,West,261,4.0,4.0,67,0.00,,BKN110,0.00,315.00,VWS V14.01,2013-02-14 14:00:00,
2013-02-14 08:01:00,34.7,25.9,29.92,WNW,296,0.0,3.0,70,0.00,,CLR,0.00,70.00,VWS V14.01,2013-02-14 14:01:00,
2013-02-14 08:05:00,40.4,30.0,29.94,West,262,2.0,8.0,66,0.00,,BKN110,0.00,343.00,VWS V14.01,2013-02-14 14:05:00,
2013-02-14 08:06:00,35.0,26.2,29.92,WNW,296,0.0,0.0,70,0.00,,CLR,0.00,56.00,VWS V14.01,2013-02-14 14:06:00,
2013-02-14 08:10:00,40.9,30.4,29.94,West,267,2.0,6.0,66,0.00,,BKN110,0.00,353.00,VWS V14.01,2013-02-14 14:10:00,
2013-02-14 08:11:00,35.3,26.2,29.92,West,274,1.0,1.0,69,0.00,,CLR,0.00,120.00,VWS V14.01,2013-02-14 14:11:00,
2013-02-14 08:15:00,41.5,30.6,29.95,WSW,256,3.0,6.0,65,0.00,,BKN110,0.00,374.00,VWS V14.01,2013-02-14 14:15:00,
2013-02-14 08:16:00,35.6,26.5,29.93,West,274,0.0,0.0,69,0.00,,CLR,0.00,120.00,VWS V14.01,2013-02-14 14:16:00,
2013-02-14 08:20:00,42.0,30.7,29.95,WSW,257,0.0,5.0,64,0.00,,BKN110,0.00,374.00,VWS V14.01,2013-02-14 14:20:00,
2013-02-14 08:21:00,36.0,26.8,29.93,West,274,0.0,0.0,69,0.00,,CLR,0.00,81.00,VWS V14.01,2013-02-14 14:21:00,
2013-02-14 08:25:00,42.6,31.3,29.95,WNW,282,3.0,6.0,64,0.00,,BKN110,0.00,401.00,VWS V14.01,2013-02-14 14:25:00,
2013-02-14 08:26:00,36.3,27.1,29.93,WSW,257,1.0,1.0,69,0.00,,CLR,0.00,160.00,VWS V14.01,2013-02-14 14:26:00,
2013-02-14 08:30:00,43.0,31.3,29.95,WSW,256,3.0,5.0,63,0.00,,BKN110,0.00,417.00,VWS V14.01,2013-02-14 14:30:00,
2013-02-14 08:31:00,36.8,27.6,29.94,West,261,1.0,2.0,69,0.00,,CLR,0.00,134.00,VWS V14.01,2013-02-14 14:31:00,
2013-02-14 08:35:00,43.4,32.0,29.95,WSW,245,3.0,5.0,64,0.00,,BKN110,0.00,443.00,VWS V14.01,2013-02-14 14:35:00,
2013-02-14 08:36:00,37.2,28.0,29.94,WSW,249,2.0,2.0,69,0.00,,CLR,0.00,174.00,VWS V14.01,2013-02-14 14:36:00,
2013-02-14 08:40:00,44.0,32.2,29.95,NW,325,0.0,8.0,63,0.00,,BKN110,0.00,501.00,VWS V14.01,2013-02-14 14:40:00,
2013-02-14 08:41:00,37.7,28.5,29.94,WSW,256,2.0,2.0,69,0.00,,CLR,0.00,246.00,VWS V14.01,2013-02-14 14:41:00,
2013-02-14 08:45:00,44.6,32.0,29.95,WNW,296,0.0,8.0,61,0.00,,BKN110,0.00,431.00,VWS V14.01,2013-02-14 14:45:00,
2013-02-14 08:46:00,38.2,28.9,29.94,West,259,3.0,3.0,69,0.00,,CLR,0.00,287.00,VWS V14.01,2013-02-14 14:46:00,
2013-02-14 08:50:00,45.0,32.4,29.95,West,260,3.0,6.0,61,0.00,,BKN110,0.00,345.00,VWS V14.01,2013-02-14 14:50:00,
2013-02-14 08:51:00,38.8,29.2,29.94,WSW,257,1.0,3.0,68,0.00,,CLR,0.00,299.00,VWS V14.01,2013-02-14 14:51:00,
2013-02-14 08:55:00,45.2,33.0,29.95,WSW,253,1.0,4.0,62,0.00,,BKN110,0.00,555.00,VWS V14.01,2013-02-14 14:55:00,
2013-02-14 08:56:00,39.4,29.4,29.94,West,267,3.0,4.0,67,0.00,,CLR,0.00,301.00,VWS V14.01,2013-02-14 14:56:00,
2013-02-14 09:00:00,45.7,33.0,29.96,WSW,257,2.0,7.0,61,0.00,,BKN110,0.00,325.00,VWS V14.01,2013-02-14 15:00:00,
2013-02-14 09:01:00,39.9,29.9,29.94,West,277,2.0,4.0,67,0.00,,CLR,0.00,320.00,VWS V14.01,2013-02-14 15:01:00,
2013-02-14 09:05:00,46.0,32.9,29.96,WNW,291,4.0,5.0,60,0.00,,BKN110,0.00,452.00,VWS V14.01,2013-02-14 15:05:00,
2013-02-14 09:06:00,40.5,30.0,29.94,SW,234,4.0,6.0,66,0.00,,CLR,0.00,345.00,VWS V14.01,2013-02-14 15:06:00,
2013-02-14 09:10:00,46.2,33.1,29.96,West,263,4.0,5.0,60,0.00,,BKN110,0.00,257.00,VWS V14.01,2013-02-14 15:10:00,
2013-02-14 09:11:00,41.0,32.0,29.94,WSW,256,2.0,5.0,70,0.00,,CLR,0.00,362.00,VWS V14.01,2013-02-14 15:11:00,
2013-02-14 09:15:00,46.3,33.6,29.96,WNW,291,0.0,4.0,61,0.00,,BKN110,0.00,582.00,VWS V14.01,2013-02-14 15:15:00,
2013-02-14 09:16:00,41.6,30.7,29.95,West,271,3.0,5.0,65,0.00,,CLR,0.00,378.00,VWS V14.01,2013-02-14 15:16:00,
2013-02-14 09:20:00,46.7,33.6,29.96,NW,321,3.0,5.0,60,0.00,,BKN110,0.00,506.00,VWS V14.01,2013-02-14 15:20:00,
2013-02-14 09:21:00,42.1,30.8,29.95,WNW,292,1.0,2.0,64,0.00,,CLR,0.00,381.00,VWS V14.01,2013-02-14 15:21:00,
2013-02-14 09:25:00,47.0,33.4,29.96,WSW,253,2.0,5.0,59,0.00,,BKN110,0.00,244.00,VWS V14.01,2013-02-14 15:25:00,
2013-02-14 09:26:00,42.6,30.9,29.95,WSW,241,4.0,4.0,63,0.00,,CLR,0.00,404.00,VWS V14.01,2013-02-14 15:26:00,
2013-02-14 09:30:00,47.2,33.6,29.96,WSW,257,1.0,5.0,59,0.00,,BKN110,0.00,633.00,VWS V14.01,2013-02-14 15:30:00,
2013-02-14 09:32:00,43.1,31.4,29.95,West,271,2.0,4.0,63,0.00,,CLR,0.00,420.00,VWS V14.01,2013-02-14 15:32:00,
2013-02-14 09:35:00,47.6,34.4,29.96,WSW,257,0.0,1.0,60,0.00,,BKN110,0.00,455.00,VWS V14.01,2013-02-14 15:35:00,
2013-02-14 09:37:00,43.6,31.5,29.95,WSW,237,6.0,8.0,62,0.00,,CLR,0.00,436.00,VWS V14.01,2013-02-14 15:37:00,
2013-02-14 09:40:00,48.1,34.5,29.96,WNW,291,3.0,6.0,59,0.00,,BKN110,0.00,369.00,VWS V14.01,2013-02-14 15:40:00,
2013-02-14 09:42:00,44.2,32.8,29.95,NW,325,0.0,0.0,64,0.00,,CLR,0.00,413.00,VWS V14.01,2013-02-14 15:42:00,
2013-02-14 09:45:00,48.3,34.7,29.96,WSW,248,3.0,4.0,59,0.00,,BKN110,0.00,573.00,VWS V14.01,2013-02-14 15:45:00,
2013-02-14 09:47:00,44.6,32.4,29.95,WNW,303,1.0,6.0,62,0.00,,CLR,0.00,527.00,VWS V14.01,2013-02-14 15:47:00,
2013-02-14 09:50:00,48.3,34.7,29.96,WNW,299,0.0,5.0,59,0.00,,BKN110,0.00,325.00,VWS V14.01,2013-02-14 15:50:00,
2013-02-14 09:52:00,45.0,32.0,29.95,West,263,1.0,3.0,60,0.00,,CLR,0.00,373.00,VWS V14.01,2013-02-14 15:52:00,
2013-02-14 09:55:00,48.6,34.5,29.96,West,279,2.0,2.0,58,0.00,,BKN110,0.00,587.00,VWS V14.01,2013-02-14 15:55:00,
2013-02-14 09:57:00,45.4,33.2,29.95,NW,314,6.0,6.0,62,0.00,,CLR,0.00,468.00,VWS V14.01,2013-02-14 15:57:00,
2013-02-14 10:00:00,49.0,35.3,29.96,NW,304,0.0,3.0,59,0.00,,BKN110,0.00,439.00,VWS V14.01,2013-02-14 16:00:00,
2013-02-14 10:02:00,45.8,33.5,29.96,WSW,254,1.0,3.0,62,0.00,,CLR,0.00,559.00,VWS V14.01,2013-02-14 16:02:00,
2013-02-14 10:05:00,49.5,34.9,29.96,North,10,0.0,4.0,57,0.00,,BKN110,0.00,731.00,VWS V14.01,2013-02-14 16:05:00,
2013-02-14 10:07:00,46.1,33.0,29.96,WNW,286,2.0,5.0,60,0.00,,CLR,0.00,403.00,VWS V14.01,2013-02-14 16:07:00,
2013-02-14 10:10:00,50.1,35.5,29.96,NNW,333,1.0,5.0,57,0.00,,BKN110,0.00,487.00,VWS V14.01,2013-02-14 16:10:00,
2013-02-14 10:12:00,46.2,32.7,29.96,WSW,256,2.0,4.0,59,0.00,,CLR,0.00,276.00,VWS V14.01,2013-02-14 16:12:00,
2013-02-14 10:15:00,50.7,36.5,29.96,NNW,334,0.0,3.0,58,0.00,,BKN110,0.00,754.00,VWS V14.01,2013-02-14 16:15:00,
2013-02-14 10:17:00,46.4,33.7,29.96,WNW,291,0.0,0.0,61,0.00,,CLR,0.00,582.00,VWS V14.01,2013-02-14 16:17:00,
2013-02-14 10:20:00,51.1,35.5,29.96,North,355,0.0,3.0,55,0.00,,BKN110,0.00,754.00,VWS V14.01,2013-02-14 16:20:00,
2013-02-14 10:22:00,46.8,33.7,29.96,NW,307,0.0,4.0,60,0.00,,CLR,0.00,522.00,VWS V14.01,2013-02-14 16:22:00,
2013-02-14 10:25:00,51.3,34.8,29.96,WSW,249,6.0,9.0,53,0.00,,BKN110,0.00,684.00,VWS V14.01,2013-02-14 16:25:00,
2013-02-14 10:27:00,47.0,33.4,29.96,WNW,293,0.0,4.0,59,0.00,,CLR,0.00,244.00,VWS V14.01,2013-02-14 16:27:00,
2013-02-14 10:30:00,51.3,35.7,29.97,NNW,342,1.0,6.0,55,0.00,,BKN110,0.00,719.00,VWS V14.01,2013-02-14 16:30:00,
2013-02-14 10:32:00,47.3,34.5,29.96,WSW,257,0.0,1.0,61,0.00,,CLR,0.00,633.00,VWS V14.01,2013-02-14 16:32:00,
2013-02-14 10:35:00,51.6,35.5,29.97,West,274,2.0,4.0,54,0.00,,BKN110,0.00,703.00,VWS V14.01,2013-02-14 16:35:00,
2013-02-14 10:37:00,47.9,35.1,29.96,WSW,254,5.0,5.0,61,0.00,,CLR,0.00,490.00,VWS V14.01,2013-02-14 16:37:00,
2013-02-14 10:40:00,52.0,35.4,29.97,North,360,0.0,5.0,53,0.00,,BKN110,0.00,712.00,VWS V14.01,2013-02-14 16:40:00,
2013-02-14 10:42:00,48.1,33.6,29.96,North,5,3.0,4.0,57,0.00,,CLR,0.00,369.00,VWS V14.01,2013-02-14 16:42:00,
2013-02-14 10:45:00,52.4,37.2,29.96,NW,317,0.0,3.0,56,0.00,,BKN110,0.00,729.00,VWS V14.01,2013-02-14 16:45:00,
2013-02-14 10:47:00,48.4,34.3,29.96,West,260,3.0,4.0,58,0.00,,CLR,0.00,345.00,VWS V14.01,2013-02-14 16:47:00,
2013-02-14 10:50:00,52.6,36.4,29.96,WSW,248,0.0,5.0,54,0.00,,BKN110,0.00,719.00,VWS V14.01,2013-02-14 16:50:00,
2013-02-14 10:52:00,48.4,34.8,29.96,NW,318,0.0,2.0,59,0.00,,CLR,0.00,371.00,VWS V14.01,2013-02-14 16:52:00,
2013-02-14 10:55:00,53.0,36.3,29.96,NNW,348,0.0,4.0,53,0.00,,BKN110,0.00,631.00,VWS V14.01,2013-02-14 16:55:00,
2013-02-14 10:57:00,48.7,35.9,29.96,NW,311,0.0,3.0,61,0.00,,CLR,0.00,571.00,VWS V14.01,2013-02-14 16:57:00,
2013-02-14 11:00:00,53.4,37.7,29.96,WSW,252,3.0,4.0,55,0.00,,BKN110,0.00,587.00,VWS V14.01,2013-02-14 17:00:00,
2013-02-14 11:02:00,49.2,35.1,29.96,West,263,3.0,4.0,58,0.00,,CLR,0.00,524.00,VWS V14.01,2013-02-14 17:02:00,
2013-02-14 11:05:00,53.5,36.3,29.96,NW,304,0.0,5.0,52,0.00,,BKN110,0.00,547.00,VWS V14.01,2013-02-14 17:05:00,
2013-02-14 11:07:00,49.7,36.0,29.96,SW,235,2.0,5.0,59,0.00,,CLR,0.00,728.00,VWS V14.01,2013-02-14 17:07:00,
2013-02-14 11:10:00,53.8,35.6,29.96,NW,322,0.0,3.0,50,0.00,,BKN110,0.00,550.00,VWS V14.01,2013-02-14 17:10:00,
2013-02-14 11:12:00,50.4,35.8,29.96,NNW,333,0.0,3.0,57,0.00,,CLR,0.00,795.00,VWS V14.01,2013-02-14 17:12:00,
2013-02-14 11:15:00,54.0,37.8,29.96,NNE,25,1.0,5.0,54,0.00,,BKN110,0.00,768.00,VWS V14.01,2013-02-14 17:15:00,
2013-02-14 11:17:00,50.8,34.8,29.96,North,355,0.0,3.0,54,0.00,,CLR,0.00,754.00,VWS V14.01,2013-02-14 17:17:00,
2013-02-14 11:20:00,54.2,37.0,29.96,West,277,0.0,4.0,52,0.00,,BKN110,0.00,756.00,VWS V14.01,2013-02-14 17:20:00,
2013-02-14 11:22:00,51.2,35.1,29.96,NNW,346,2.0,3.0,54,0.00,,CLR,0.00,696.00,VWS V14.01,2013-02-14 17:22:00,
2013-02-14 11:25:00,54.4,36.2,29.96,WSW,250,3.0,6.0,50,0.00,,BKN110,0.00,694.00,VWS V14.01,2013-02-14 17:25:00,
2013-02-14 11:28:00,51.2,35.1,29.96,North,350,0.0,6.0,54,0.00,,CLR,0.00,290.00,VWS V14.01,2013-02-14 17:28:00,
2013-02-14 11:30:00,54.3,35.6,29.95,SW,229,1.0,7.0,49,0.00,,BKN110,0.00,696.00,VWS V14.01,2013-02-14 17:30:00,
2013-02-14 11:33:00,51.4,36.7,29.97,NNW,338,2.0,3.0,57,0.00,,CLR,0.00,715.00,VWS V14.01,2013-02-14 17:33:00,
2013-02-14 11:35:00,53.9,34.2,29.95,NNE,22,0.0,10.0,47,0.00,,BKN110,0.00,501.00,VWS V14.01,2013-02-14 17:35:00,
2013-02-14 11:38:00,51.7,36.5,29.97,West,273,2.0,4.0,56,0.00,,CLR,0.00,717.00,VWS V14.01,2013-02-14 17:38:00,
2013-02-14 11:40:00,53.7,34.5,29.95,SW,230,2.0,7.0,48,0.00,,BKN110,0.00,791.00,VWS V14.01,2013-02-14 17:40:00,
2013-02-14 11:43:00,52.2,36.1,29.97,North,5,2.0,3.0,54,0.00,,CLR,0.00,691.00,VWS V14.01,2013-02-14 17:43:00,
2013-02-14 11:45:00,53.7,32.3,29.95,West,259,0.0,9.0,44,0.00,,BKN110,0.00,366.00,VWS V14.01,2013-02-14 17:45:00,
2013-02-14 11:48:00,52.6,36.0,29.96,West,265,2.0,5.0,53,0.00,,CLR,0.00,717.00,VWS V14.01,2013-02-14 17:48:00,
2013-02-14 11:50:00,54.0,35.3,29.95,WSW,253,1.0,4.0,49,0.00,,BKN110,0.00,773.00,VWS V14.01,2013-02-14 17:50:00,
2013-02-14 11:53:00,52.7,37.5,29.96,NNW,337,0.0,4.0,56,0.00,,CLR,0.00,715.00,VWS V14.01,2013-02-14 17:53:00,
2013-02-14 11:55:00,54.4,35.7,29.95,NW,317,0.0,4.0,49,0.00,,BKN110,0.00,582.00,VWS V14.01,2013-02-14 17:55:00,
2013-02-14 11:58:00,53.3,37.1,29.96,West,279,3.0,3.0,54,0.00,,CLR,0.00,599.00,VWS V14.01,2013-02-14 17:58:00,
2013-02-14 12:00:00,54.5,33.0,29.94,WSW,245,7.0,11.0,44,0.00,,BKN110,0.00,378.00,VWS V14.01,2013-02-14 18:00:00,
2013-02-14 12:03:00,53.5,36.8,29.96,NW,311,2.0,5.0,53,0.00,,CLR,0.00,612.00,VWS V14.01,2013-02-14 18:03:00,
2013-02-14 12:05:00,54.0,33.2,29.94,WSW,243,4.0,9.0,45,0.00,,BKN110,0.00,425.00,VWS V14.01,2013-02-14 18:05:00,
2013-02-14 12:08:00,53.7,36.5,29.96,NNW,331,0.0,3.0,52,0.00,,CLR,0.00,517.00,VWS V14.01,2013-02-14 18:08:00,
2013-02-14 12:10:00,53.8,34.1,29.94,SW,224,4.0,7.0,47,0.00,,BKN110,0.00,628.00,VWS V14.01,2013-02-14 18:10:00,
2013-02-14 12:13:00,53.9,37.2,29.96,WSW,238,4.0,4.0,53,0.00,,CLR,0.00,761.00,VWS V14.01,2013-02-14 18:13:00,
2013-02-14 12:15:00,53.8,34.1,29.94,West,264,2.0,7.0,47,0.00,,BKN110,0.00,745.00,VWS V14.01,2013-02-14 18:15:00,
2013-02-14 12:18:00,54.1,37.4,29.96,NNW,346,1.0,3.0,53,0.00,,CLR,0.00,698.00,VWS V14.01,2013-02-14 18:18:00,
2013-02-14 12:20:00,54.1,34.3,29.94,West,279,6.0,7.0,47,0.00,,BKN110,0.00,626.00,VWS V14.01,2013-02-14 18:20:00,
2013-02-14 12:23:00,54.4,37.6,29.96,West,265,0.0,3.0,53,0.00,,CLR,0.00,740.00,VWS V14.01,2013-02-14 18:23:00,
2013-02-14 12:25:00,54.2,33.3,29.94,West,277,3.0,7.0,45,0.00,,BKN110,0.00,610.00,VWS V14.01,2013-02-14 18:25:00,
2013-02-14 12:28:00,54.5,37.2,29.96,West,267,4.0,7.0,52,0.00,,CLR,0.00,633.00,VWS V14.01,2013-02-14 18:28:00,
2013-02-14 12:30:00,54.6,34.2,29.94,North,9,0.0,5.0,46,0.00,,BKN110,0.00,594.00,VWS V14.01,2013-02-14 18:30:00,
2013-02-14 12:33:00,54.2,36.5,29.95,West,264,9.0,10.0,51,0.00,,CLR,0.00,561.00,VWS V14.01,2013-02-14 18:33:00,
2013-02-14 12:35:00,55.1,34.7,29.94,WNW,298,0.0,7.0,46,0.00,,BKN110,0.00,506.00,VWS V14.01,2013-02-14 18:35:00,
2013-02-14 12:38:00,53.7,35.0,29.95,West,265,3.0,7.0,49,0.00,,CLR,0.00,408.00,VWS V14.01,2013-02-14 18:38:00,
2013-02-14 12:40:00,55.2,33.1,29.94,West,265,0.0,9.0,43,0.00,,BKN110,0.00,657.00,VWS V14.01,2013-02-14 18:40:00,
2013-02-14 12:43:00,53.8,35.6,29.95,WNW,288,6.0,9.0,50,0.00,,CLR,0.00,752.00,VWS V14.01,2013-02-14 18:43:00,
2013-02-14 12:45:00,55.1,33.0,29.93,NW,313,4.0,7.0,43,0.00,,BKN110,0.00,492.00,VWS V14.01,2013-02-14 18:45:00,
2013-02-14 12:48:00,53.8,34.6,29.95,North,9,4.0,4.0,48,0.00,,CLR,0.00,802.00,VWS V14.01,2013-02-14 18:48:00,
2013-02-14 12:50:00,54.8,33.3,29.93,West,269,8.0,8.0,44,0.00,,BKN110,0.00,452.00,VWS V14.01,2013-02-14 18:50:00,
2013-02-14 12:53:00,54.2,35.5,29.95,WNW,287,0.0,2.0,49,0.00,,CLR,0.00,571.00,VWS V14.01,2013-02-14 18:53:00,
2013-02-14 12:55:00,54.5,34.2,29.93,West,279,0.0,8.0,46,0.00,,BKN110,0.00,308.00,VWS V14.01,2013-02-14 18:55:00,
2013-02-14 12:58:00,54.6,33.7,29.95,NW,304,3.0,6.0,45,0.00,,CLR,0.00,615.00,VWS V14.01,2013-02-14 18:58:00,
2013-02-14 13:00:00,54.3,35.0,29.93,WNW,284,1.0,6.0,48,0.00,,BKN110,0.00,510.00,VWS V14.01,2013-02-14 19:00:00,
2013-02-14 13:03:00,54.2,32.8,29.94,West,274,2.0,9.0,44,0.00,,CLR,0.00,425.00,VWS V14.01,2013-02-14 19:03:00,
2013-02-14 13:05:00,54.3,33.4,29.93,WNW,283,2.0,7.0,45,0.00,,BKN110,0.00,330.00,VWS V14.01,2013-02-14 19:05:00,
2013-02-14 13:08:00,53.9,33.6,29.94,WNW,295,5.0,7.0,46,0.00,,CLR,0.00,628.00,VWS V14.01,2013-02-14 19:08:00,
2013-02-14 13:10:00,54.2,32.8,29.93,WSW,244,5.0,10.0,44,0.00,,BKN110,0.00,459.00,VWS V14.01,2013-02-14 19:10:00,
2013-02-14 13:13:00,53.7,35.5,29.94,WSW,240,0.0,4.0,50,0.00,,CLR,0.00,684.00,VWS V14.01,2013-02-14 19:13:00,
2013-02-14 13:15:00,54.3,32.9,29.93,NNW,337,2.0,7.0,44,0.00,,BKN110,0.00,492.00,VWS V14.01,2013-02-14 19:15:00,
2013-02-14 13:18:00,53.9,33.6,29.94,West,263,6.0,7.0,46,0.00,,CLR,0.00,661.00,VWS V14.01,2013-02-14 19:18:00,
2013-02-14 13:20:00,54.6,34.2,29.93,NW,322,0.0,7.0,46,0.00,,BKN110,0.00,318.00,VWS V14.01,2013-02-14 19:20:00,
2013-02-14 13:23:00,54.1,34.3,29.94,West,271,3.0,7.0,47,0.00,,CLR,0.00,687.00,VWS V14.01,2013-02-14 19:23:00,
2013-02-14 13:25:00,54.6,33.1,29.93,North,9,1.0,6.0,44,0.00,,BKN110,0.00,260.00,VWS V14.01,2013-02-14 19:25:00,
2013-02-14 13:28:00,54.4,34.6,29.94,WSW,246,1.0,5.0,47,0.00,,CLR,0.00,585.00,VWS V14.01,2013-02-14 19:28:00,
2013-02-14 13:30:00,54.5,34.2,29.93,WNW,287,0.0,4.0,46,0.00,,BKN110,0.00,411.00,VWS V14.01,2013-02-14 19:30:00,
2013-02-14 13:33:00,54.9,36.1,29.94,NW,306,1.0,7.0,49,0.00,,CLR,0.00,534.00,VWS V14.01,2013-02-14 19:33:00,
2013-02-14 13:35:00,54.5,34.2,29.93,NNW,331,1.0,9.0,46,0.00,,BKN110,0.00,480.00,VWS V14.01,2013-02-14 19:35:00,
2013-02-14 13:38:00,55.3,33.2,29.94,West,263,4.0,8.0,43,0.00,,CLR,0.00,566.00,VWS V14.01,2013-02-14 19:38:00,
2013-02-14 13:40:00,54.7,32.7,29.93,NNW,337,0.0,6.0,43,0.00,,BKN110,0.00,220.00,VWS V14.01,2013-02-14 19:40:00,
2013-02-14 13:43:00,55.2,32.5,29.94,WSW,257,6.0,7.0,42,0.00,,CLR,0.00,547.00,VWS V14.01,2013-02-14 19:43:00,
2013-02-14 13:45:00,54.8,33.3,29.93,NNW,333,1.0,3.0,44,0.00,,BKN110,0.00,308.00,VWS V14.01,2013-02-14 19:45:00,
2013-02-14 13:49:00,54.9,33.4,29.93,WNW,299,0.0,8.0,44,0.00,,CLR,0.00,422.00,VWS V14.01,2013-02-14 19:49:00,
2013-02-14 13:50:00,54.6,32.6,29.93,WNW,298,0.0,9.0,43,0.00,,BKN110,0.00,329.00,VWS V14.01,2013-02-14 19:50:00,
2013-02-14 13:54:00,54.6,33.7,29.93,West,269,6.0,8.0,45,0.00,,CLR,0.00,366.00,VWS V14.01,2013-02-14 19:54:00,
2013-02-14 13:55:00,54.2,32.2,29.93,WNW,298,0.0,8.0,43,0.00,,BKN110,0.00,265.00,VWS V14.01,2013-02-14 19:55:00,
2013-02-14 13:59:00,54.4,33.5,29.93,WNW,292,0.0,4.0,45,0.00,,CLR,0.00,392.00,VWS V14.01,2013-02-14 19:59:00,
2013-02-14 14:00:00,53.8,33.0,29.93,NNW,332,3.0,7.0,45,0.00,,BKN110,0.00,292.00,VWS V14.01,2013-02-14 20:00:00,
2013-02-14 14:04:00,54.3,32.9,29.93,WSW,250,4.0,7.0,44,0.00,,CLR,0.00,362.00,VWS V14.01,2013-02-14 20:04:00,
2013-02-14 14:05:00,53.5,32.1,29.93,West,273,4.0,9.0,44,0.00,,BKN110,0.00,332.00,VWS V14.01,2013-02-14 20:05:00,
2013-02-14 14:09:00,54.2,34.4,29.93,SW,229,6.0,10.0,47,0.00,,CLR,0.00,459.00,VWS V14.01,2013-02-14 20:09:00,
2013-02-14 14:10:00,53.3,32.0,29.93,NNE,30,5.0,8.0,44,0.00,,BKN110,0.00,243.00,VWS V14.01,2013-02-14 20:10:00,
2013-02-14 14:14:00,54.2,34.4,29.93,SSW,213,0.0,7.0,47,0.00,,CLR,0.00,617.00,VWS V14.01,2013-02-14 20:14:00,
2013-02-14 14:15:00,53.3,33.1,29.94,WNW,302,1.0,10.0,46,0.00,,BKN110,0.00,253.00,VWS V14.01,2013-02-14 20:15:00,
2013-02-14 14:19:00,54.6,33.7,29.93,WNW,300,1.0,7.0,45,0.00,,CLR,0.00,381.00,VWS V14.01,2013-02-14 20:19:00,
2013-02-14 14:20:00,53.3,34.1,29.94,WNW,300,2.0,5.0,48,0.00,,BKN110,0.00,260.00,VWS V14.01,2013-02-14 20:20:00,
2013-02-14 14:24:00,54.7,33.2,29.93,NNE,27,2.0,6.0,44,0.00,,CLR,0.00,246.00,VWS V14.01,2013-02-14 20:24:00,
2013-02-14 14:25:00,53.4,33.7,29.94,NW,309,3.0,6.0,47,0.00,,BKN110,0.00,295.00,VWS V14.01,2013-02-14 20:25:00,
2013-02-14 14:29:00,54.5,34.2,29.93,North,349,0.0,4.0,46,0.00,,CLR,0.00,276.00,VWS V14.01,2013-02-14 20:29:00,
2013-02-14 14:30:00,53.5,32.1,29.94,West,276,4.0,8.0,44,0.00,,BKN110,0.00,155.00,VWS V14.01,2013-02-14 20:30:00,
2013-02-14 14:34:00,54.5,34.2,29.93,West,263,4.0,9.0,46,0.00,,CLR,0.00,480.00,VWS V14.01,2013-02-14 20:34:00,
2013-02-14 14:35:00,53.3,32.0,29.94,WNW,296,5.0,7.0,44,0.00,,BKN110,0.00,167.00,VWS V14.01,2013-02-14 20:35:00,
2013-02-14 14:39:00,54.6,32.6,29.93,NNW,344,0.0,6.0,43,0.00,,CLR,0.00,276.00,VWS V14.01,2013-02-14 20:39:00,
2013-02-14 14:40:00,53.1,32.3,29.94,WNW,286,2.0,6.0,45,0.00,,BKN110,0.00,229.00,VWS V14.01,2013-02-14 20:40:00,
2013-02-14 14:44:00,54.8,33.9,29.93,NW,318,0.0,3.0,45,0.00,,CLR,0.00,299.00,VWS V14.01,2013-02-14 20:44:00,
2013-02-14 14:45:00,53.0,32.2,29.95,West,281,3.0,10.0,45,0.00,,BKN110,0.00,243.00,VWS V14.01,2013-02-14 20:45:00,
2013-02-14 14:49:00,54.7,32.7,29.93,West,280,7.0,7.0,43,0.00,,CLR,0.00,330.00,VWS V14.01,2013-02-14 20:49:00,
2013-02-14 14:50:00,53.0,33.3,29.95,West,261,5.0,10.0,47,0.00,,BKN110,0.00,248.00,VWS V14.01,2013-02-14 20:50:00,
2013-02-14 14:54:00,54.4,33.5,29.93,West,261,7.0,8.0,45,0.00,,CLR,0.00,279.00,VWS V14.01,2013-02-14 20:54:00,
2013-02-14 14:55:00,53.0,33.3,29.95,West,268,4.0,8.0,47,0.00,,BKN110,0.00,290.00,VWS V14.01,2013-02-14 20:55:00,
2013-02-14 14:59:00,53.9,33.1,29.93,West,280,4.0,7.0,45,0.00,,CLR,0.00,283.00,VWS V14.01,2013-02-14 20:59:00,
2013-02-14 15:00:00,53.1,32.3,29.95,WNW,289,3.0,9.0,45,0.00,,BKN110,0.00,186.00,VWS V14.01,2013-02-14 21:00:00,
2013-02-14 15:04:00,53.7,32.9,29.93,WSW,257,6.0,9.0,45,0.00,,CLR,0.00,311.00,VWS V14.01,2013-02-14 21:04:00,
2013-02-14 15:05:00,53.0,32.8,29.95,West,277,1.0,7.0,46,0.00,,BKN110,0.00,202.00,VWS V14.01,2013-02-14 21:05:00,
2013-02-14 15:09:00,53.3,32.5,29.93,West,271,2.0,8.0,45,0.00,,CLR,0.00,292.00,VWS V14.01,2013-02-14 21:09:00,
2013-02-14 15:10:00,53.1,32.3,29.95,WNW,286,3.0,12.0,45,0.00,,BKN110,0.00,269.00,VWS V14.01,2013-02-14 21:10:00,
2013-02-14 15:14:00,53.3,33.6,29.93,West,265,7.0,10.0,47,0.00,,CLR,0.00,308.00,VWS V14.01,2013-02-14 21:14:00,
2013-02-14 15:15:00,53.2,32.4,29.96,West,265,4.0,8.0,45,0.00,,BKN110,0.00,207.00,VWS V14.01,2013-02-14 21:15:00,
2013-02-14 15:19:00,53.3,34.7,29.94,WSW,256,1.0,5.0,49,0.00,,CLR,0.00,232.00,VWS V14.01,2013-02-14 21:19:00,
2013-02-14 15:20:00,53.1,31.8,29.96,WNW,287,7.0,7.0,44,0.00,,BKN110,0.00,132.00,VWS V14.01,2013-02-14 21:20:00,
2013-02-14 15:24:00,53.4,33.2,29.94,NW,321,0.0,6.0,46,0.00,,CLR,0.00,329.00,VWS V14.01,2013-02-14 21:24:00,
2013-02-14 15:25:00,52.8,32.1,29.96,NW,310,2.0,7.0,45,0.00,,BKN110,0.00,213.00,VWS V14.01,2013-02-14 21:25:00,
2013-02-14 15:29:00,53.5,33.2,29.94,WSW,251,4.0,8.0,46,0.00,,CLR,0.00,181.00,VWS V14.01,2013-02-14 21:29:00,
2013-02-14 15:30:00,52.8,32.1,29.96,WNW,290,0.0,8.0,45,0.00,,BKN110,0.00,192.00,VWS V14.01,2013-02-14 21:30:00,
2013-02-14 15:34:00,53.4,32.0,29.94,WNW,292,1.0,7.0,44,0.00,,CLR,0.00,167.00,VWS V14.01,2013-02-14 21:34:00,
2013-02-14 15:35:00,52.8,32.1,29.96,NNW,338,2.0,10.0,45,0.00,,BKN110,0.00,171.00,VWS V14.01,2013-02-14 21:35:00,
2013-02-14 15:39:00,53.1,32.3,29.94,West,268,3.0,6.0,45,0.00,,CLR,0.00,200.00,VWS V14.01,2013-02-14 21:39:00,
2013-02-14 15:40:00,52.8,32.6,29.96,WNW,295,1.0,5.0,46,0.00,,BKN110,0.00,139.00,VWS V14.01,2013-02-14 21:40:00,
2013-02-14 15:44:00,53.0,32.8,29.94,WNW,286,5.0,10.0,46,0.00,,CLR,0.00,253.00,VWS V14.01,2013-02-14 21:44:00,
2013-02-14 15:45:00,52.7,32.0,29.96,NW,306,0.0,8.0,45,0.00,,BKN110,0.00,135.00,VWS V14.01,2013-02-14 21:45:00,
2013-02-14 15:49:00,53.0,32.8,29.95,WNW,293,1.0,10.0,46,0.00,,CLR,0.00,236.00,VWS V14.01,2013-02-14 21:49:00,
2013-02-14 15:50:00,52.5,31.8,29.96,West,265,2.0,8.0,45,0.00,,BKN110,0.00,125.00,VWS V14.01,2013-02-14 21:50:00,
2013-02-14 15:54:00,53.0,32.8,29.95,NNW,332,2.0,8.0,46,0.00,,CLR,0.00,301.00,VWS V14.01,2013-02-14 21:54:00,
2013-02-14 15:55:00,52.2,32.1,29.96,WNW,292,0.0,8.0,46,0.00,,BKN110,0.00,113.00,VWS V14.01,2013-02-14 21:55:00,
2013-02-14 15:59:00,53.1,32.3,29.95,West,264,4.0,9.0,45,0.00,,CLR,0.00,243.00,VWS V14.01,2013-02-14 21:59:00,
2013-02-14 16:00:00,52.0,31.3,29.97,West,281,5.0,8.0,45,0.00,,BKN110,0.00,104.00,VWS V14.01,2013-02-14 22:00:00,
2013-02-14 16:04:00,53.0,32.2,29.95,NW,319,3.0,7.0,45,0.00,,CLR,0.00,248.00,VWS V14.01,2013-02-14 22:04:00,
2013-02-14 16:05:00,51.7,31.6,29.97,West,277,0.0,5.0,46,0.00,,BKN110,0.00,107.00,VWS V14.01,2013-02-14 22:05:00,
2013-02-14 16:09:00,53.1,31.8,29.95,WSW,245,4.0,9.0,44,0.00,,CLR,0.00,267.00,VWS V14.01,2013-02-14 22:09:00,
2013-02-14 16:10:00,51.5,32.0,29.97,WNW,290,0.0,4.0,47,0.00,,BKN110,0.00,67.00,VWS V14.01,2013-02-14 22:10:00,
2013-02-14 16:15:00,53.2,32.4,29.95,WSW,250,4.0,7.0,45,0.00,,CLR,0.00,207.00,VWS V14.01,2013-02-14 22:15:00,
2013-02-14 16:20:00,53.1,32.3,29.96,WNW,296,5.0,7.0,45,0.00,,CLR,0.00,123.00,VWS V14.01,2013-02-14 22:20:00,
2013-02-14 16:25:00,52.9,31.6,29.96,West,267,5.0,7.0,44,0.00,,CLR,0.00,206.00,VWS V14.01,2013-02-14 22:25:00,
2013-02-14 16:30:00,52.8,32.1,29.96,WNW,303,1.0,4.0,45,0.00,,CLR,0.00,197.00,VWS V14.01,2013-02-14 22:30:00,
2013-02-14 16:35:00,52.8,32.1,29.96,WSW,258,7.0,10.0,45,0.00,,CLR,0.00,185.00,VWS V14.01,2013-02-14 22:35:00,
2013-02-14 16:40:00,52.8,33.2,29.96,NW,306,0.0,3.0,47,0.00,,CLR,0.00,144.00,VWS V14.01,2013-02-14 22:40:00,
2013-02-14 16:45:00,52.7,32.0,29.96,NW,306,0.0,8.0,45,0.00,,CLR,0.00,135.00,VWS V14.01,2013-02-14 22:45:00,
2013-02-14 16:50:00,52.6,31.9,29.96,WNW,284,0.0,8.0,45,0.00,,CLR,0.00,125.00,VWS V14.01,2013-02-14 22:50:00,
2013-02-14 16:55:00,52.2,32.1,29.96,WNW,293,0.0,8.0,46,0.00,,CLR,0.00,114.00,VWS V14.01,2013-02-14 22:55:00,
2013-02-14 17:00:00,52.0,31.3,29.97,WNW,300,3.0,8.0,45,0.00,,CLR,0.00,107.00,VWS V14.01,2013-02-14 23:00:00,
2013-02-14 17:05:00,51.7,31.6,29.97,West,276,5.0,5.0,46,0.00,,CLR,0.00,104.00,VWS V14.01,2013-02-14 23:05:00,
2013-02-14 17:10:00,51.6,32.6,29.97,WNW,294,1.0,4.0,48,0.00,,CLR,0.00,79.00,VWS V14.01,2013-02-14 23:10:00,
2013-02-14 17:15:00,51.4,32.4,29.97,WSW,238,2.0,5.0,48,0.00,,CLR,0.00,44.00,VWS V14.01,2013-02-14 23:15:00,
2013-02-14 17:20:00,51.1,32.1,29.97,NNW,345,0.0,3.0,48,0.00,,CLR,0.00,39.00,VWS V14.01,2013-02-14 23:20:00,
2013-02-14 17:25:00,50.8,32.3,29.97,West,265,0.0,7.0,49,0.00,,CLR,0.00,26.00,VWS V14.01,2013-02-14 23:25:00,
2013-02-14 17:30:00,50.4,31.5,29.98,NW,311,2.0,3.0,48,0.00,,CLR,0.00,23.00,VWS V14.01,2013-02-14 23:30:00,
2013-02-14 17:35:00,50.1,31.2,29.98,WNW,295,2.0,5.0,48,0.00,,CLR,0.00,19.00,VWS V14.01,2013-02-14 23:35:00,
2013-02-14 17:40:00,49.7,31.3,29.98,WNW,288,0.0,7.0,49,0.00,,CLR,0.00,14.00,VWS V14.01,2013-02-14 23:40:00,
2013-02-14 17:45:00,49.4,31.1,29.98,WNW,284,3.0,6.0,49,0.00,,CLR,0.00,9.00,VWS V14.01,2013-02-14 23:45:00,
2013-02-14 17:50:00,49.1,31.3,29.98,WNW,287,0.0,5.0,50,0.00,,CLR,0.00,0.00,VWS V14.01,2013-02-14 23:50:00,
2013-02-14 17:55:00,48.9,31.1,29.98,WNW,294,2.0,5.0,50,0.00,,CLR,0.00,0.00,VWS V14.01,2013-02-14 23:55:00,
2013-02-14 18:00:00,48.6,31.3,29.98,West,259,1.0,2.0,51,0.00,,CLR,0.00,0.00,VWS V14.01,2013-02-15 00:00:00,
2013-02-14 18:05:00,48.3,31.0,29.98,WNW,291,0.0,6.0,51,0.00,,CLR,0.00,0.00,VWS V14.01,2013-02-15 00:05:00,
2013-02-14 18:10:00,48.1,31.3,29.98,West,260,0.0,4.0,52,0.00,,CLR,0.00,0.00,VWS V14.01,2013-02-15 00:10:00,
2013-02-14 18:15:00,47.9,31.6,29.99,WNW,283,0.0,3.0,53,0.00,,CLR,0.00,0.00,VWS V14.01,2013-02-15 00:15:00,
2013-02-14 18:20:00,47.7,31.4,29.99,WNW,283,0.0,2.0,53,0.00,,CLR,0.00,0.00,VWS V14.01,2013-02-15 00:20:00,
2013-02-14 18:25:00,47.4,31.6,29.99,West,277,0.0,2.0,54,0.00,,CLR,0.00,0.00,VWS V14.01,2013-02-15 00:25:00,
2013-02-14 18:30:00,47.2,31.4,29.99,West,277,0.0,0.0,54,0.00,,CLR,0.00,0.00,VWS V14.01,2013-02-15 00:30:00,
2013-02-14 18:35:00,47.0,31.7,29.99,West,276,0.0,1.0,55,0.00,,CLR,0.00,0.00,VWS V14.01,2013-02-15 00:35:00,
2013-02-14 18:40:00,44.6,31.6,30.01,West,267,0.0,0.0,60,0.00,,BKN110,0.00,0.00,VWS V14.01,2013-02-15 00:40:00,
2013-02-14 18:41:00,46.7,31.4,29.99,West,277,0.0,0.0,55,0.00,,CLR,0.00,0.00,VWS V14.01,2013-02-15 00:41:00,
2013-02-14 18:45:00,44.5,31.5,30.02,West,267,0.0,0.0,60,0.00,,BKN110,0.00,0.00,VWS V14.01,2013-02-15 00:45:00,
2013-02-14 18:46:00,46.5,31.2,30.00,West,277,0.0,0.0,55,0.00,,CLR,0.00,0.00,VWS V14.01,2013-02-15 00:46:00,
2013-02-14 18:50:00,44.3,31.3,30.02,West,267,0.0,0.0,60,0.00,,BKN110,0.00,0.00,VWS V14.01,2013-02-15 00:50:00,
2013-02-14 18:51:00,46.2,31.4,30.00,West,276,0.0,0.0,56,0.00,,CLR,0.00,0.00,VWS V14.01,2013-02-15 00:51:00,
2013-02-14 18:55:00,44.2,31.6,30.02,West,267,0.0,1.0,61,0.00,,BKN110,0.00,0.00,VWS V14.01,2013-02-15 00:55:00,
2013-02-14 18:56:00,46.0,31.2,30.00,West,277,1.0,1.0,56,0.00,,CLR,0.00,0.00,VWS V14.01,2013-02-15 00:56:00,
2013-02-14 19:00:00,44.1,31.5,30.02,West,259,1.0,5.0,61,0.00,,BKN110,0.00,0.00,VWS V14.01,2013-02-15 01:00:00,
2013-02-14 19:01:00,45.8,31.5,30.00,West,277,0.0,2.0,57,0.00,,CLR,0.00,0.00,VWS V14.01,2013-02-15 01:01:00,
2013-02-14 19:05:00,44.0,31.4,30.02,West,260,0.0,2.0,61,0.00,,BKN110,0.00,0.00,VWS V14.01,2013-02-15 01:05:00,
2013-02-14 19:06:00,45.6,31.7,30.00,West,277,0.0,2.0,58,0.00,,CLR,0.00,0.00,VWS V14.01,2013-02-15 01:06:00,
2013-02-14 19:10:00,43.9,31.3,30.02,WSW,257,0.0,3.0,61,0.00,,BKN110,0.00,0.00,VWS V14.01,2013-02-15 01:10:00,
2013-02-14 19:11:00,45.4,31.5,30.00,West,277,0.0,0.0,58,0.00,,CLR,0.00,0.00,VWS V14.01,2013-02-15 01:11:00,
2013-02-14 19:15:00,43.8,31.2,30.03,WSW,257,0.0,0.0,61,0.00,,BKN110,0.00,0.00,VWS V14.01,2013-02-15 01:15:00,
2013-02-14 19:16:00,45.3,31.8,30.01,West,277,0.0,0.0,59,0.00,,CLR,0.00,0.00,VWS V14.01,2013-02-15 01:16:00,
2013-02-14 19:20:00,43.7,31.5,30.03,WSW,257,0.0,0.0,62,0.00,,BKN110,0.00,0.00,VWS V14.01,2013-02-15 01:20:00,
2013-02-14 19:21:00,45.1,31.6,30.01,West,276,0.0,0.0,59,0.00,,CLR,0.00,0.00,VWS V14.01,2013-02-15 01:21:00,
2013-02-14 19:25:00,43.7,31.5,30.03,WSW,257,0.0,0.0,62,0.00,,BKN110,0.00,0.00,VWS V14.01,2013-02-15 01:25:00,
2013-02-14 19:26:00,45.0,31.5,30.01,West,267,0.0,0.0,59,0.00,,CLR,0.00,0.00,VWS V14.01,2013-02-15 01:26:00,
2013-02-14 19:30:00,43.6,31.5,30.03,WSW,257,0.0,0.0,62,0.00,,BKN110,0.00,0.00,VWS V14.01,2013-02-15 01:30:00,
2013-02-14 19:31:00,44.8,31.4,30.01,West,267,0.0,0.0,59,0.00,,CLR,0.00,0.00,VWS V14.01,2013-02-15 01:31:00,
2013-02-14 19:35:00,43.4,31.3,30.03,WSW,257,0.0,0.0,62,0.00,,BKN110,0.00,0.00,VWS V14.01,2013-02-15 01:35:00,
2013-02-14 19:36:00,44.7,31.7,30.01,West,267,0.0,0.0,60,0.00,,CLR,0.00,0.00,VWS V14.01,2013-02-15 01:36:00,
2013-02-14 19:40:00,43.3,31.2,30.03,WSW,257,0.0,0.0,62,0.00,,BKN110,0.00,0.00,VWS V14.01,2013-02-15 01:40:00,
2013-02-14 19:41:00,44.6,31.6,30.01,West,267,0.0,0.0,60,0.00,,CLR,0.00,0.00,VWS V14.01,2013-02-15 01:41:00,
2013-02-14 19:45:00,43.2,31.5,30.03,WSW,257,0.0,0.0,63,0.00,,BKN110,0.00,0.00,VWS V14.01,2013-02-15 01:45:00,
2013-02-14 19:46:00,44.4,31.4,30.02,West,267,0.0,0.0,60,0.00,,CLR,0.00,0.00,VWS V14.01,2013-02-15 01:46:00,
2013-02-14 19:50:00,43.1,31.4,30.03,WSW,257,0.0,0.0,63,0.00,,BKN110,0.00,0.00,VWS V14.01,2013-02-15 01:50:00,
2013-02-14 19:51:00,44.3,31.3,30.02,West,267,0.0,0.0,60,0.00,,CLR,0.00,0.00,VWS V14.01,2013-02-15 01:51:00,
2013-02-14 19:55:00,42.9,31.2,30.03,WSW,257,0.0,2.0,63,0.00,,BKN110,0.00,0.00,VWS V14.01,2013-02-15 01:55:00,
2013-02-14 19:56:00,44.2,31.6,30.02,West,267,0.0,0.0,61,0.00,,CLR,0.00,0.00,VWS V14.01,2013-02-15 01:56:00,
2013-02-14 20:00:00,42.9,31.6,30.04,WSW,257,0.0,0.0,64,0.00,,BKN110,0.00,0.00,VWS V14.01,2013-02-15 02:00:00,
2013-02-14 20:01:00,44.1,31.5,30.02,West,260,2.0,2.0,61,0.00,,CLR,0.00,0.00,VWS V14.01,2013-02-15 02:01:00,
2013-02-14 20:05:00,42.7,31.4,30.04,WSW,257,0.0,1.0,64,0.00,,BKN110,0.00,0.00,VWS V14.01,2013-02-15 02:05:00,
2013-02-14 20:06:00,44.0,31.4,30.02,West,260,0.0,0.0,61,0.00,,FEW120,0.00,0.00,VWS V14.01,2013-02-15 02:06:00,
2013-02-14 20:10:00,42.6,31.3,30.04,WSW,257,0.0,1.0,64,0.00,,BKN110,0.00,0.00,VWS V14.01,2013-02-15 02:10:00,
2013-02-14 20:11:00,43.9,31.3,30.02,WSW,257,0.0,0.0,61,0.00,,FEW120,0.00,0.00,VWS V14.01,2013-02-15 02:11:00,
2013-02-14 20:15:00,42.6,31.7,30.04,WSW,257,0.0,0.0,65,0.00,,BKN110,0.00,0.00,VWS V14.01,2013-02-15 02:15:00,
2013-02-14 20:16:00,43.8,31.2,30.03,WSW,257,0.0,0.0,61,0.00,,FEW120,0.00,0.00,VWS V14.01,2013-02-15 02:16:00,
2013-02-14 20:20:00,42.5,31.6,30.04,WSW,257,0.0,0.0,65,0.00,,BKN110,0.00,0.00,VWS V14.01,2013-02-15 02:20:00,
2013-02-14 20:21:00,43.7,31.5,30.03,WSW,257,0.0,0.0,62,0.00,,FEW120,0.00,0.00,VWS V14.01,2013-02-15 02:21:00,
2013-02-14 20:25:00,42.4,31.5,30.04,WSW,257,0.0,0.0,65,0.00,,BKN110,0.00,0.00,VWS V14.01,2013-02-15 02:25:00,
2013-02-14 20:26:00,43.7,31.5,30.03,WSW,257,0.0,0.0,62,0.00,,FEW120,0.00,0.00,VWS V14.01,2013-02-15 02:26:00,
2013-02-14 20:30:00,42.4,31.9,30.05,WSW,257,1.0,1.0,66,0.00,,BKN110,0.00,0.00,VWS V14.01,2013-02-15 02:30:00,
2013-02-14 20:31:00,43.5,31.4,30.03,WSW,257,0.0,0.0,62,0.00,,FEW120,0.00,0.00,VWS V14.01,2013-02-15 02:31:00,
2013-02-14 20:35:00,42.3,31.8,30.05,WSW,257,0.0,3.0,66,0.00,,BKN110,0.00,0.00,VWS V14.01,2013-02-15 02:35:00,
2013-02-14 20:36:00,43.4,31.3,30.03,WSW,257,0.0,0.0,62,0.00,,FEW120,0.00,0.00,VWS V14.01,2013-02-15 02:36:00,
2013-02-14 20:40:00,42.2,32.0,30.05,WSW,257,0.0,1.0,67,0.00,,BKN110,0.00,0.00,VWS V14.01,2013-02-15 02:40:00,
2013-02-14 20:41:00,43.3,31.2,30.03,WSW,257,0.0,0.0,62,0.00,,FEW120,0.00,0.00,VWS V14.01,2013-02-15 02:41:00,
2013-02-14 20:45:00,42.2,32.0,30.05,WSW,257,0.0,0.0,67,0.00,,BKN110,0.00,0.00,VWS V14.01,2013-02-15 02:45:00,
2013-02-14 20:46:00,43.2,31.5,30.03,WSW,257,0.0,0.0,63,0.00,,FEW120,0.00,0.00,VWS V14.01,2013-02-15 02:46:00,
2013-02-14 20:50:00,42.1,32.0,30.05,WSW,257,0.0,0.0,67,0.00,,BKN110,0.00,0.00,VWS V14.01,2013-02-15 02:50:00,
2013-02-14 20:51:00,43.1,31.4,30.03,WSW,257,0.0,0.0,63,0.00,,FEW120,0.00,0.00,VWS V14.01,2013-02-15 02:51:00,
2013-02-14 20:55:00,42.0,32.2,30.05,WSW,257,0.0,0.0,68,0.00,,BKN110,0.00,0.00,VWS V14.01,2013-02-15 02:55:00,
2013-02-14 20:56:00,42.9,31.6,30.03,WSW,257,0.0,0.0,64,0.00,,FEW120,0.00,0.00,VWS V14.01,2013-02-15 02:56:00,
2013-02-14 21:00:00,41.9,32.1,30.06,WSW,257,0.0,0.0,68,0.00,,BKN110,0.00,0.00,VWS V14.01,2013-02-15 03:00:00,
2013-02-14 21:01:00,42.8,31.5,30.04,WSW,257,0.0,0.0,64,0.00,,FEW120,0.00,0.00,VWS V14.01,2013-02-15 03:01:00,
2013-02-14 21:05:00,41.8,32.0,30.06,WSW,257,0.0,2.0,68,0.00,,BKN110,0.00,0.00,VWS V14.01,2013-02-15 03:05:00,
2013-02-14 21:07:00,42.7,31.4,30.04,WSW,257,0.0,0.0,64,0.00,,FEW120,0.00,0.00,VWS V14.01,2013-02-15 03:07:00,
2013-02-14 21:10:00,41.7,32.3,30.06,WSW,257,0.0,3.0,69,0.00,,BKN110,0.00,0.00,VWS V14.01,2013-02-15 03:10:00,
2013-02-14 21:12:00,42.6,31.3,30.04,WSW,257,0.0,0.0,64,0.00,,FEW120,0.00,0.00,VWS V14.01,2013-02-15 03:12:00,
2013-02-14 21:15:00,41.6,32.2,30.06,West,279,1.0,3.0,69,0.00,,BKN110,0.00,0.00,VWS V14.01,2013-02-15 03:15:00,
2013-02-14 21:17:00,42.6,31.7,30.04,WSW,257,0.0,0.0,65,0.00,,OVC080,0.00,0.00,VWS V14.01,2013-02-15 03:17:00,
2013-02-14 21:20:00,41.6,32.2,30.06,West,279,0.0,2.0,69,0.00,,BKN110,0.00,0.00,VWS V14.01,2013-02-15 03:20:00,
2013-02-14 21:22:00,42.5,31.6,30.04,WSW,257,0.0,0.0,65,0.00,,OVC080,0.00,0.00,VWS V14.01,2013-02-15 03:22:00,
2013-02-14 21:25:00,41.6,32.2,30.06,West,261,2.0,4.0,69,0.00,,BKN110,0.00,0.00,VWS V14.01,2013-02-15 03:25:00,
2013-02-14 21:27:00,42.4,31.5,30.04,WSW,257,0.0,1.0,65,0.00,,OVC080,0.00,0.00,VWS V14.01,2013-02-15 03:27:00,
2013-02-14 21:30:00,41.6,31.8,30.07,WNW,303,0.0,5.0,68,0.00,,BKN110,0.00,0.00,VWS V14.01,2013-02-15 03:30:00,
2013-02-14 21:32:00,42.3,31.8,30.05,WSW,257,0.0,1.0,66,0.00,,OVC080,0.00,0.00,VWS V14.01,2013-02-15 03:32:00,
2013-02-14 21:35:00,41.8,32.0,30.07,WNW,286,3.0,4.0,68,0.00,,BKN110,0.00,0.00,VWS V14.01,2013-02-15 03:35:00,
2013-02-14 21:37:00,42.3,32.1,30.05,WSW,257,0.0,1.0,67,0.00,,OVC080,0.00,0.00,VWS V14.01,2013-02-15 03:37:00,
2013-02-14 21:40:00,42.0,31.9,30.07,West,280,1.0,6.0,67,0.00,,BKN110,0.00,0.00,VWS V14.01,2013-02-15 03:40:00,
2013-02-14 21:42:00,42.2,31.7,30.05,WSW,257,0.0,0.0,66,0.00,,OVC080,0.00,0.00,VWS V14.01,2013-02-15 03:42:00,
2013-02-14 21:45:00,42.1,32.0,30.07,NW,310,0.0,4.0,67,0.00,,BKN110,0.00,0.00,VWS V14.01,2013-02-15 03:45:00,
2013-02-14 21:47:00,42.2,32.0,30.05,WSW,257,0.0,0.0,67,0.00,,OVC080,0.00,0.00,VWS V14.01,2013-02-15 03:47:00,
2013-02-14 21:50:00,42.2,31.7,30.07,WNW,299,3.0,4.0,66,0.00,,BKN110,0.00,0.00,VWS V14.01,2013-02-15 03:50:00,
2013-02-14 21:52:00,42.0,32.2,30.05,WSW,257,0.0,0.0,68,0.00,,OVC080,0.00,0.00,VWS V14.01,2013-02-15 03:52:00,
2013-02-14 21:55:00,42.3,31.4,30.07,West,279,2.0,5.0,65,0.00,,BKN110,0.00,0.00,VWS V14.01,2013-02-15 03:55:00,
2013-02-14 21:57:00,42.0,32.2,30.05,WSW,257,0.0,0.0,68,0.00,,OVC080,0.00,0.00,VWS V14.01,2013-02-15 03:57:00,
2013-02-14 22:00:00,42.4,31.5,30.07,WNW,285,3.0,3.0,65,0.00,,BKN110,0.00,0.00,VWS V14.01,2013-02-15 04:00:00,
2013-02-14 22:02:00,41.8,32.0,30.06,WSW,257,0.0,0.0,68,0.00,,OVC080,0.00,0.00,VWS V14.01,2013-02-15 04:02:00,
2013-02-14 22:05:00,42.5,31.2,30.07,NNW,327,0.0,4.0,64,0.00,,BKN110,0.00,0.00,VWS V14.01,2013-02-15 04:05:00,
2013-02-14 22:07:00,41.7,31.9,30.06,WSW,257,0.0,3.0,68,0.00,,OVC080,0.00,0.00,VWS V14.01,2013-02-15 04:07:00,
2013-02-14 22:10:00,42.5,31.2,30.07,West,264,0.0,3.0,64,0.00,,BKN110,0.00,0.00,VWS V14.01,2013-02-15 04:10:00,
2013-02-14 22:12:00,41.6,32.2,30.06,WSW,257,0.0,0.0,69,0.00,,OVC080,0.00,0.00,VWS V14.01,2013-02-15 04:12:00,
2013-02-14 22:15:00,42.5,31.2,30.07,West,265,0.0,2.0,64,0.00,,BKN110,0.00,0.00,VWS V14.01,2013-02-15 04:15:00,
2013-02-14 22:17:00,41.6,32.2,30.06,West,279,0.0,2.0,69,0.00,,OVC080,0.00,0.00,VWS V14.01,2013-02-15 04:17:00,
2013-02-14 22:20:00,42.5,30.8,30.07,West,261,0.0,3.0,63,0.00,,BKN110,0.00,0.00,VWS V14.01,2013-02-15 04:20:00,
2013-02-14 22:22:00,41.6,32.2,30.06,West,279,0.0,2.0,69,0.00,,OVC080,0.00,0.00,VWS V14.01,2013-02-15 04:22:00,
2013-02-14 22:25:00,42.6,30.9,30.07,West,277,0.0,3.0,63,0.00,,BKN110,0.00,0.00,VWS V14.01,2013-02-15 04:25:00,
2013-02-14 22:27:00,41.6,32.2,30.06,North,10,0.0,5.0,69,0.00,,OVC080,0.00,0.00,VWS V14.01,2013-02-15 04:27:00,
2013-02-14 22:30:00,42.6,30.9,30.07,WNW,287,0.0,2.0,63,0.00,,BKN110,0.00,0.00,VWS V14.01,2013-02-15 04:30:00,
2013-02-14 22:32:00,41.7,31.9,30.07,SW,221,0.0,4.0,68,0.00,,OVC080,0.00,0.00,VWS V14.01,2013-02-15 04:32:00,
2013-02-14 22:35:00,42.6,30.9,30.07,WNW,288,0.0,2.0,63,0.00,,BKN110,0.00,0.00,VWS V14.01,2013-02-15 04:35:00,
2013-02-14 22:37:00,41.9,31.8,30.07,WNW,300,0.0,6.0,67,0.00,,OVC080,0.00,0.00,VWS V14.01,2013-02-15 04:37:00,
2013-02-14 22:40:00,42.6,30.9,30.07,WNW,288,0.0,0.0,63,0.00,,BKN110,0.00,0.00,VWS V14.01,2013-02-15 04:40:00,
2013-02-14 22:42:00,42.0,31.9,30.07,WNW,286,2.0,2.0,67,0.00,,OVC080,0.00,0.00,VWS V14.01,2013-02-15 04:42:00,
2013-02-14 22:45:00,42.5,30.8,30.07,WNW,287,0.0,0.0,63,0.00,,BKN110,0.00,0.00,VWS V14.01,2013-02-15 04:45:00,
2013-02-14 22:47:00,42.2,32.0,30.07,NW,313,0.0,1.0,67,0.00,,OVC080,0.00,0.00,VWS V14.01,2013-02-15 04:47:00,
2013-02-14 22:50:00,42.4,30.7,30.07,SW,230,0.0,3.0,63,0.00,,BKN110,0.00,0.00,VWS V14.01,2013-02-15 04:50:00,
2013-02-14 22:52:00,42.2,31.7,30.07,NW,311,2.0,5.0,66,0.00,,OVC080,0.00,0.00,VWS V14.01,2013-02-15 04:52:00,
2013-02-14 22:55:00,42.4,30.7,30.07,WNW,282,0.0,4.0,63,0.00,,BKN110,0.00,0.00,VWS V14.01,2013-02-15 04:55:00,
2013-02-14 22:58:00,42.4,31.5,30.07,WSW,257,1.0,2.0,65,0.00,,OVC080,0.00,0.00,VWS V14.01,2013-02-15 04:58:00,
2013-02-14 23:00:00,42.4,31.5,30.07,WNW,299,0.0,2.0,65,0.00,,OVC080,0.00,0.00,VWS V14.01,2013-02-15 05:00:00,
2013-02-14 23:01:00,42.4,31.5,30.07,West,263,4.0,4.0,65,0.00,,OVC080,0.00,0.00,VWS V14.01,2013-02-15 05:01:00,
2013-02-14 23:05:00,42.2,30.5,30.07,West,273,0.0,3.0,63,0.00,,BKN110,0.00,0.00,VWS V14.01,2013-02-15 05:05:00,
2013-02-14 23:06:00,42.5,31.2,30.07,NNW,327,0.0,4.0,64,0.00,,OVC100,0.00,0.00,VWS V14.01,2013-02-15 05:06:00,
2013-02-14 23:10:00,42.1,30.8,30.07,SW,233,1.0,3.0,64,0.00,,BKN110,0.00,0.00,VWS V14.01,2013-02-15 05:10:00,
2013-02-14 23:11:00,42.5,31.2,30.07,West,264,0.0,3.0,64,0.00,,OVC100,0.00,0.00,VWS V14.01,2013-02-15 05:11:00,
2013-02-14 23:15:00,42.0,30.7,30.07,West,275,0.0,2.0,64,0.00,,BKN110,0.00,0.00,VWS V14.01,2013-02-15 05:15:00,
2013-02-14 23:16:00,42.5,31.2,30.07,West,265,0.0,2.0,64,0.00,,OVC100,0.00,0.00,VWS V14.01,2013-02-15 05:16:00,
2013-02-14 23:17:00,42.5,31.2,30.07,NW,304,2.0,3.0,64,0.00,,OVC100,0.00,0.00,VWS V14.01,2013-02-15 05:17:00,
2013-02-14 23:20:00,41.9,31.0,30.07,WNW,296,0.0,4.0,65,0.00,,BKN110,0.00,0.00,VWS V14.01,2013-02-15 05:20:00,
2013-02-14 23:22:00,42.5,30.8,30.07,West,260,0.0,0.0,63,0.00,,OVC100,0.00,0.00,VWS V14.01,2013-02-15 05:22:00,
2013-02-14 23:25:00,41.7,30.8,30.07,NW,309,0.0,2.0,65,0.00,,BKN110,0.00,0.00,VWS V14.01,2013-02-15 05:25:00,
2013-02-14 23:27:00,42.6,30.9,30.07,WNW,288,0.0,2.0,63,0.00,,OVC100,0.00,0.00,VWS V14.01,2013-02-15 05:27:00,
2013-02-14 23:30:00,41.6,30.7,30.07,NW,306,0.0,2.0,65,0.00,,BKN110,0.00,0.00,VWS V14.01,2013-02-15 05:30:00,
2013-02-14 23:32:00,42.6,30.9,30.07,WNW,287,0.0,0.0,63,0.00,,OVC100,0.00,0.00,VWS V14.01,2013-02-15 05:32:00,
2013-02-14 23:35:00,41.5,30.6,30.07,WNW,300,2.0,3.0,65,0.00,,BKN110,0.00,0.00,VWS V14.01,2013-02-15 05:35:00,
2013-02-14 23:37:00,42.6,30.9,30.07,WNW,288,0.0,0.0,63,0.00,,OVC100,0.00,0.00,VWS V14.01,2013-02-15 05:37:00,
2013-02-14 23:40:00,41.4,30.9,30.07,NNW,343,0.0,3.0,66,0.00,,BKN110,0.00,0.00,VWS V14.01,2013-02-15 05:40:00,
2013-02-14 23:42:00,42.6,30.9,30.07,WNW,287,0.0,0.0,63,0.00,,OVC100,0.00,0.00,VWS V14.01,2013-02-15 05:42:00,
2013-02-14 23:45:00,41.3,30.8,30.07,NNW,342,0.0,2.0,66,0.00,,BKN110,0.00,0.00,VWS V14.01,2013-02-15 05:45:00,
2013-02-14 23:47:00,42.5,30.8,30.07,WNW,288,0.0,0.0,63,0.00,,OVC100,0.00,0.00,VWS V14.01,2013-02-15 05:47:00,
2013-02-14 23:50:00,41.1,30.6,30.07,NW,313,0.0,3.0,66,0.00,,BKN110,0.00,0.00,VWS V14.01,2013-02-15 05:50:00,
2013-02-14 23:52:00,42.4,30.7,30.07,SW,231,0.0,0.0,63,0.00,,OVC100,0.00,0.00,VWS V14.01,2013-02-15 05:52:00,
2013-02-14 23:55:00,41.1,30.6,30.07,NW,313,0.0,1.0,66,0.00,,BKN110,0.00,0.00,VWS V14.01,2013-02-15 05:55:00,
2013-02-14 23:57:00,42.3,30.6,30.07,WNW,294,0.0,2.0,63,0.00,,OVC100,0.00,0.00,VWS V14.01,2013-02-15 05:57:00,